| time (UTC) | temp F | wind direction | speed MPH | gust MPH | rain 1hr in | rain 24hr in | rain mn in | humidity % | barometer mb |
| 20260510084946 | 50 | 238 | 1.0 | 6.0 | 0.00 | 0.34 | 0.02 | 97 | 1008.6 |
| 20260510084842 | 50 | 235 | 1.0 | 6.0 | 0.00 | 0.34 | 0.02 | 97 | 1008.6 |
| 20260510084736 | 50 | 235 | 1.0 | 6.0 | 0.00 | 0.34 | 0.02 | 97 | 1008.5 |
| 20260510084414 | 50 | 219 | 1.0 | 6.0 | 0.00 | 0.34 | 0.02 | 97 | 1008.5 |
| 20260510084310 | 50 | 177 | 1.0 | 6.0 | 0.00 | 0.34 | 0.02 | 97 | 1008.5 |
| 20260510084206 | 50 | 172 | 1.0 | 6.0 | 0.00 | 0.34 | 0.02 | 97 | 1008.5 |
| 20260510084057 | 50 | 171 | 1.0 | 6.0 | 0.00 | 0.34 | 0.02 | 97 | 1008.6 |
| 20260510083733 | 50 | 243 | 1.0 | 6.0 | 0.00 | 0.34 | 0.02 | 97 | 1008.6 |
| 20260510083630 | 50 | 243 | 0.0 | 6.0 | 0.00 | 0.34 | 0.02 | 97 | 1008.6 |
| 20260510083524 | 50 | 199 | 0.0 | 6.0 | 0.00 | 0.34 | 0.02 | 97 | 1008.7 |
| 20260510083417 | 50 | 199 | 0.0 | 6.0 | 0.00 | 0.34 | 0.02 | 97 | 1008.7 |
| 20260510083312 | 50 | 199 | 0.0 | 6.0 | 0.00 | 0.34 | 0.02 | 97 | 1008.7 |
| 20260510082943 | 50 | 181 | 0.0 | 3.0 | 0.00 | 0.34 | 0.02 | 97 | 1008.8 |
| 20260510082616 | 51 | 205 | 1.0 | 6.0 | 0.00 | 0.34 | 0.02 | 97 | 1008.8 |
| 20260510082509 | 51 | 205 | 1.0 | 6.0 | 0.00 | 0.34 | 0.02 | 97 | 1008.8 |
| 20260510082402 | 51 | 182 | 1.0 | 6.0 | 0.00 | 0.34 | 0.02 | 97 | 1008.8 |
| 20260510082258 | 51 | 182 | 1.0 | 6.0 | 0.00 | 0.34 | 0.02 | 97 | 1008.8 |
| 20260510082154 | 51 | 182 | 1.0 | 6.0 | 0.00 | 0.34 | 0.02 | 97 | 1008.8 |
| 20260510081830 | 51 | 238 | 1.0 | 6.0 | 0.00 | 0.34 | 0.02 | 97 | 1008.9 |
| 20260510081724 | 51 | 238 | 1.0 | 6.0 | 0.00 | 0.34 | 0.02 | 97 | 1008.9 |
| 20260510081619 | 51 | 191 | 1.0 | 6.0 | 0.00 | 0.34 | 0.02 | 97 | 1008.9 |
| 20260510081514 | 51 | 190 | 3.0 | 6.0 | 0.00 | 0.34 | 0.02 | 97 | 1008.9 |
| 20260510081411 | 51 | 192 | 1.0 | 6.0 | 0.00 | 0.34 | 0.02 | 97 | 1008.8 |
| 20260510081304 | 51 | 215 | 1.0 | 6.0 | 0.00 | 0.34 | 0.02 | 97 | 1008.8 |
| 20260510081158 | 51 | 225 | 1.0 | 6.0 | 0.00 | 0.34 | 0.02 | 97 | 1008.8 |
| 20260510081054 | 51 | 229 | 0.0 | 6.0 | 0.00 | 0.34 | 0.02 | 97 | 1008.8 |
| 20260510080945 | 51 | 227 | 0.0 | 3.0 | 0.00 | 0.34 | 0.02 | 97 | 1008.8 |
| 20260510080842 | 51 | 229 | 0.0 | 3.0 | 0.00 | 0.34 | 0.02 | 97 | 1008.7 |
| 20260510080739 | 51 | 229 | 0.0 | 3.0 | 0.00 | 0.34 | 0.02 | 97 | 1008.6 |
| 20260510080637 | 51 | 230 | 0.0 | 3.0 | 0.00 | 0.34 | 0.02 | 97 | 1008.6 |
| 20260510080531 | 51 | 242 | 0.0 | 3.0 | 0.00 | 0.34 | 0.02 | 97 | 1008.6 |
| 20260510080425 | 51 | 207 | 0.0 | 1.0 | 0.00 | 0.34 | 0.02 | 97 | 1008.6 |
| 20260510080321 | 51 | 207 | 0.0 | 0.0 | 0.00 | 0.34 | 0.02 | 97 | 1008.6 |
| 20260510080217 | 51 | 207 | 0.0 | 3.0 | 0.00 | 0.34 | 0.02 | 97 | 1008.6 |
| 20260510080110 | 51 | 208 | 0.0 | 3.0 | 0.00 | 0.34 | 0.02 | 97 | 1008.6 |
| 20260510075744 | 51 | 173 | 0.0 | 3.0 | 0.00 | 0.34 | 0.02 | 97 | 1008.6 |
| 20260510075157 | 51 | 166 | 0.0 | 3.0 | 0.00 | 0.34 | 0.02 | 97 | 1008.5 |
| 20260510075049 | 51 | 153 | 0.0 | 3.0 | 0.00 | 0.34 | 0.02 | 97 | 1008.4 |
| 20260510074941 | 51 | 148 | 0.0 | 3.0 | 0.00 | 0.34 | 0.02 | 97 | 1008.4 |
| 20260510074839 | 51 | 137 | 0.0 | 0.0 | 0.00 | 0.34 | 0.02 | 97 | 1008.4 |
| 20260510074733 | 51 | 137 | 0.0 | 0.0 | 0.00 | 0.34 | 0.02 | 97 | 1008.4 |
| 20260510074629 | 51 | 137 | 0.0 | 0.0 | 0.00 | 0.34 | 0.02 | 97 | 1008.3 |
| 20260510074520 | 51 | 137 | 0.0 | 0.0 | 0.00 | 0.34 | 0.02 | 97 | 1008.2 |
| 20260510074414 | 51 | 137 | 0.0 | 3.0 | 0.00 | 0.34 | 0.02 | 97 | 1008.0 |
| 20260510073827 | 51 | 128 | 0.0 | 4.0 | 0.00 | 0.34 | 0.02 | 97 | 1008.3 |
| 20260510073720 | 51 | 140 | 0.0 | 4.0 | 0.00 | 0.34 | 0.02 | 97 | 1008.2 |
| 20260510073613 | 51 | 130 | 0.0 | 3.0 | 0.00 | 0.34 | 0.02 | 97 | 1008.2 |
| 20260510073506 | 51 | 130 | 0.0 | 3.0 | 0.00 | 0.34 | 0.02 | 97 | 1008.3 |
| 20260510073400 | 51 | 130 | 0.0 | 0.0 | 0.00 | 0.34 | 0.02 | 97 | 1008.4 |
| 20260510073255 | 51 | 130 | 0.0 | 0.0 | 0.00 | 0.34 | 0.02 | 97 | 1008.3 |
| 20260510073152 | 51 | 130 | 0.0 | 0.0 | 0.00 | 0.34 | 0.02 | 97 | 1008.2 |
| 20260510073048 | 51 | 130 | 0.0 | 0.0 | 0.00 | 0.34 | 0.02 | 97 | 1008.1 |
| 20260510072721 | 51 | 130 | 0.0 | 3.0 | 0.00 | 0.34 | 0.02 | 97 | 1008.5 |
| 20260510072617 | 51 | 130 | 0.0 | 3.0 | 0.00 | 0.34 | 0.02 | 97 | 1008.6 |
| 20260510072514 | 51 | 130 | 0.0 | 3.0 | 0.00 | 0.34 | 0.02 | 97 | 1008.6 |
| 20260510072410 | 51 | 130 | 0.0 | 3.0 | 0.00 | 0.34 | 0.02 | 97 | 1008.5 |
| 20260510072305 | 51 | 129 | 0.0 | 3.0 | 0.00 | 0.34 | 0.02 | 97 | 1008.6 |
| 20260510072157 | 51 | 157 | 0.0 | 3.0 | 0.00 | 0.34 | 0.02 | 97 | 1008.8 |
| 20260510071832 | 51 | 155 | 1.0 | 3.0 | 0.00 | 0.34 | 0.02 | 97 | 1008.9 |
| 20260510071728 | 51 | 155 | 1.0 | 3.0 | 0.00 | 0.34 | 0.02 | 97 | 1008.9 |
| 20260510071621 | 51 | 155 | 1.0 | 3.0 | 0.00 | 0.34 | 0.02 | 97 | 1008.9 |
| 20260510071519 | 51 | 155 | 1.0 | 3.0 | 0.00 | 0.34 | 0.02 | 97 | 1009.0 |
| 20260510071414 | 51 | 152 | 1.0 | 3.0 | 0.00 | 0.34 | 0.02 | 97 | 1009.0 |
| 20260510071306 | 51 | 152 | 1.0 | 0.0 | 0.00 | 0.34 | 0.02 | 97 | 1009.0 |
| 20260510071159 | 51 | 152 | 1.0 | 6.0 | 0.00 | 0.34 | 0.02 | 97 | 1009.0 |
| 20260510071055 | 51 | 152 | 1.0 | 6.0 | 0.00 | 0.34 | 0.02 | 97 | 1009.1 |
| 20260510070948 | 51 | 153 | 1.0 | 6.0 | 0.00 | 0.34 | 0.02 | 97 | 1009.1 |
| 20260510070843 | 51 | 153 | 1.0 | 6.0 | 0.00 | 0.34 | 0.02 | 97 | 1009.1 |
| 20260510070736 | 51 | 152 | 1.0 | 6.0 | 0.00 | 0.34 | 0.02 | 97 | 1009.2 |
| 20260510070630 | 51 | 152 | 1.0 | 6.0 | 0.00 | 0.34 | 0.02 | 97 | 1009.1 |
| 20260510070526 | 51 | 151 | 1.0 | 6.0 | 0.00 | 0.34 | 0.02 | 97 | 1009.1 |
| 20260510070202 | 51 | 182 | 1.0 | 6.0 | 0.00 | 0.34 | 0.02 | 97 | 1009.1 |
| 20260510070055 | 51 | 140 | 1.0 | 6.0 | 0.00 | 0.34 | 0.02 | 97 | 1009.1 |
| 20260510065951 | 51 | 140 | 1.0 | 6.0 | 0.00 | 0.34 | 0.02 | 97 | 1009.1 |
| 20260510065627 | 51 | 173 | 1.0 | 6.0 | 0.00 | 0.34 | 0.02 | 97 | 1009.2 |
| 20260510065523 | 51 | 173 | 1.0 | 6.0 | 0.00 | 0.34 | 0.02 | 97 | 1009.3 |
| 20260510064721 | 51 | 165 | 0.0 | 4.0 | 0.00 | 0.34 | 0.02 | 97 | 1009.3 |
| 20260510064353 | 51 | 159 | 0.0 | 4.0 | 0.00 | 0.34 | 0.02 | 97 | 1009.2 |
| 20260510064248 | 51 | 159 | 1.0 | 4.0 | 0.00 | 0.34 | 0.02 | 97 | 1009.3 |
| 20260510064141 | 51 | 159 | 1.0 | 4.0 | 0.00 | 0.34 | 0.02 | 97 | 1009.3 |
| 20260510064033 | 51 | 168 | 0.0 | 6.0 | 0.00 | 0.34 | 0.02 | 97 | 1009.3 |
| 20260510063710 | 51 | 165 | 1.0 | 6.0 | 0.00 | 0.34 | 0.02 | 97 | 1009.2 |
| 20260510063606 | 51 | 165 | 1.0 | 6.0 | 0.00 | 0.34 | 0.02 | 97 | 1009.2 |
| 20260510063500 | 51 | 163 | 1.0 | 6.0 | 0.00 | 0.34 | 0.02 | 97 | 1009.3 |
| 20260510063353 | 51 | 161 | 1.0 | 6.0 | 0.00 | 0.34 | 0.02 | 97 | 1009.3 |
| 20260510063246 | 51 | 223 | 1.0 | 6.0 | 0.00 | 0.34 | 0.02 | 97 | 1009.3 |
| 20260510063139 | 51 | 221 | 1.0 | 6.0 | 0.00 | 0.34 | 0.02 | 97 | 1009.4 |
| 20260510063035 | 51 | 221 | 1.0 | 6.0 | 0.04 | 0.34 | 0.02 | 97 | 1009.4 |
| 20260510062928 | 51 | 221 | 1.0 | 6.0 | 0.04 | 0.34 | 0.02 | 97 | 1009.4 |
| 20260510062820 | 51 | 223 | 1.0 | 6.0 | 0.04 | 0.34 | 0.02 | 97 | 1009.4 |
| 20260510062716 | 51 | 225 | 1.0 | 6.0 | 0.04 | 0.34 | 0.02 | 97 | 1009.4 |
| 20260510062349 | 51 | 192 | 1.0 | 6.0 | 0.06 | 0.34 | 0.02 | 97 | 1009.4 |
| 20260510062245 | 51 | 153 | 1.0 | 6.0 | 0.06 | 0.34 | 0.02 | 97 | 1009.4 |
| 20260510062138 | 51 | 193 | 1.0 | 6.0 | 0.06 | 0.34 | 0.02 | 97 | 1009.4 |
| 20260510062031 | 51 | 219 | 1.0 | 4.0 | 0.06 | 0.34 | 0.02 | 97 | 1009.4 |
| 20260510061923 | 51 | 243 | 1.0 | 4.0 | 0.06 | 0.34 | 0.02 | 97 | 1009.4 |
| 20260510061817 | 51 | 243 | 1.0 | 4.0 | 0.06 | 0.34 | 0.02 | 97 | 1009.4 |
| 20260510061451 | 51 | 214 | 3.0 | 3.0 | 0.06 | 0.33 | 0.02 | 97 | 1009.4 |
| 20260510061345 | 51 | 229 | 1.0 | 3.0 | 0.06 | 0.33 | 0.02 | 97 | 1009.4 |
| 20260510061242 | 51 | 204 | 1.0 | 3.0 | 0.00 | 0.33 | 0.01 | 97 | 1009.4 |
| 20260510060918 | 51 | 244 | 1.0 | 4.0 | 0.00 | 0.33 | 0.01 | 97 | 1009.3 |
| 20260510060815 | 51 | 205 | 1.0 | 4.0 | 0.00 | 0.33 | 0.01 | 97 | 1009.4 |
| 20260510060452 | 51 | 232 | 0.0 | 4.0 | 0.00 | 0.32 | 0.01 | 97 | 1009.2 |
| 20260510060345 | 51 | 213 | 0.0 | 4.0 | 0.00 | 0.32 | 0.00 | 97 | 1009.3 |
| 20260510060022 | 51 | 216 | 0.0 | 4.0 | 0.00 | 0.32 | 0.00 | 97 | 1009.2 |
| 20260510055917 | 51 | 216 | 0.0 | 4.0 | 0.00 | 0.32 | 0.00 | 97 | 1009.2 |
| 20260510055813 | 51 | 216 | 0.0 | 4.0 | 0.00 | 0.32 | 0.00 | 97 | 1009.2 |
| 20260510055709 | 51 | 216 | 0.0 | 4.0 | 0.00 | 0.32 | 0.00 | 97 | 1009.2 |
| 20260510055607 | 51 | 218 | 0.0 | 4.0 | 0.00 | 0.32 | 0.00 | 97 | 1009.2 |
| 20260510055500 | 51 | 221 | 0.0 | 4.0 | 0.00 | 0.32 | 0.00 | 97 | 1009.3 |
| 20260510055134 | 51 | 221 | 0.0 | 4.0 | 0.00 | 0.32 | 0.00 | 97 | 1009.3 |
| 20260510055030 | 51 | 221 | 0.0 | 4.0 | 0.00 | 0.32 | 0.00 | 97 | 1009.2 |
| 20260510054927 | 51 | 219 | 0.0 | 4.0 | 0.00 | 0.32 | 0.00 | 97 | 1009.2 |
| 20260510054823 | 51 | 180 | 0.0 | 1.0 | 0.00 | 0.32 | 0.00 | 97 | 1009.2 |
| 20260510054717 | 51 | 181 | 0.0 | 0.0 | 0.00 | 0.32 | 0.00 | 97 | 1009.3 |
| 20260510054128 | 51 | 181 | 1.0 | 3.0 | 0.00 | 0.32 | 0.00 | 97 | 1009.2 |
| 20260510054021 | 51 | 181 | 1.0 | 3.0 | 0.00 | 0.32 | 0.00 | 97 | 1009.2 |
| 20260510053917 | 51 | 181 | 0.0 | 3.0 | 0.00 | 0.32 | 0.00 | 97 | 1009.1 |
| 20260510053812 | 51 | 182 | 0.0 | 3.0 | 0.00 | 0.32 | 0.00 | 97 | 1009.1 |
| 20260510053704 | 51 | 185 | 0.0 | 3.0 | 0.00 | 0.32 | 0.00 | 97 | 1009.1 |
| 20260510053559 | 51 | 183 | 0.0 | 3.0 | 0.00 | 0.32 | 0.00 | 97 | 1009.0 |
| 20260510053453 | 51 | 200 | 0.0 | 3.0 | 0.00 | 0.32 | 0.00 | 97 | 1009.0 |
| 20260510053130 | 51 | 206 | 0.0 | 0.0 | 0.00 | 0.32 | 0.00 | 97 | 1009.0 |
| 20260510053023 | 51 | 205 | 0.0 | 1.0 | 0.00 | 0.32 | 0.00 | 97 | 1009.0 |
| 20260510052916 | 51 | 205 | 0.0 | 1.0 | 0.00 | 0.32 | 0.00 | 97 | 1008.9 |
| 20260510052548 | 51 | 206 | 0.0 | 1.0 | 0.00 | 0.32 | 0.00 | 97 | 1008.9 |
| 20260510052444 | 51 | 206 | 0.0 | 1.0 | 0.00 | 0.32 | 0.00 | 97 | 1008.9 |
| 20260510052337 | 51 | 207 | 0.0 | 0.0 | 0.00 | 0.32 | 0.00 | 97 | 1008.9 |
| 20260510052009 | 51 | 207 | 0.0 | 3.0 | 0.00 | 0.32 | 0.00 | 97 | 1008.9 |
| 20260510051905 | 51 | 208 | 0.0 | 3.0 | 0.00 | 0.32 | 0.00 | 97 | 1008.9 |
| 20260510051543 | 51 | 205 | 0.0 | 3.0 | 0.00 | 0.32 | 0.00 | 97 | 1008.8 |
| 20260510051214 | 51 | 234 | 0.0 | 3.0 | 0.00 | 0.32 | 0.00 | 97 | 1008.8 |
| 20260510051107 | 51 | 236 | 0.0 | 3.0 | 0.00 | 0.32 | 0.00 | 97 | 1008.8 |
| 20260510051004 | 51 | 236 | 0.0 | 3.0 | 0.00 | 0.32 | 0.00 | 97 | 1008.8 |
| 20260510050637 | 51 | 207 | 0.0 | 0.0 | 0.00 | 0.32 | 0.00 | 97 | 1008.8 |
| 20260510050532 | 51 | 207 | 0.0 | 3.0 | 0.00 | 0.32 | 0.00 | 97 | 1008.8 |
| 20260510050428 | 51 | 207 | 0.0 | 3.0 | 0.00 | 0.32 | 0.00 | 97 | 1008.8 |
| 20260510050323 | 51 | 207 | 0.0 | 0.0 | 0.00 | 0.32 | 0.00 | 97 | 1008.7 |
| 20260510045738 | 51 | 217 | 0.0 | 1.0 | 0.00 | 0.32 | 0.00 | 97 | 1008.7 |
| 20260510045417 | 51 | 208 | 0.0 | 3.0 | 0.00 | 0.32 | 0.00 | 97 | 1008.8 |
| 20260510045313 | 51 | 211 | 0.0 | 3.0 | 0.00 | 0.32 | 0.00 | 97 | 1008.8 |
| 20260510045206 | 51 | 215 | 0.0 | 3.0 | 0.00 | 0.32 | 0.00 | 97 | 1008.9 |
| 20260510045103 | 51 | 215 | 0.0 | 0.0 | 0.00 | 0.32 | 0.00 | 97 | 1008.9 |
| 20260510045001 | 51 | 215 | 0.0 | 0.0 | 0.00 | 0.32 | 0.00 | 97 | 1008.9 |
| 20260510044853 | 51 | 215 | 0.0 | 3.0 | 0.00 | 0.32 | 0.00 | 97 | 1008.9 |
| 20260510044746 | 51 | 215 | 0.0 | 3.0 | 0.00 | 0.32 | 0.00 | 97 | 1009.0 |
| 20260510044642 | 51 | 216 | 0.0 | 3.0 | 0.00 | 0.32 | 0.00 | 97 | 1008.9 |
| 20260510044319 | 51 | 216 | 0.0 | 0.0 | 0.00 | 0.32 | 0.00 | 97 | 1009.0 |
| 20260510043952 | 51 | 216 | 0.0 | 0.0 | 0.00 | 0.32 | 0.00 | 97 | 1009.0 |
| 20260510043848 | 51 | 216 | 0.0 | 0.0 | 0.00 | 0.32 | 0.00 | 97 | 1008.9 |
| 20260510043743 | 51 | 216 | 0.0 | 3.0 | 0.00 | 0.32 | 0.00 | 97 | 1009.0 |
| 20260510043636 | 51 | 216 | 0.0 | 3.0 | 0.00 | 0.32 | 0.00 | 97 | 1009.0 |
| 20260510043530 | 51 | 216 | 0.0 | 3.0 | 0.00 | 0.32 | 0.00 | 97 | 1008.9 |
| 20260510043426 | 51 | 205 | 0.0 | 1.0 | 0.00 | 0.32 | 0.00 | 97 | 1008.9 |
| 20260510043321 | 51 | 205 | 0.0 | 0.0 | 0.00 | 0.32 | 0.00 | 97 | 1008.8 |
| 20260510043220 | 51 | 205 | 0.0 | 0.0 | 0.00 | 0.32 | 0.00 | 97 | 1008.9 |
| 20260510043115 | 51 | 205 | 0.0 | 3.0 | 0.00 | 0.32 | 0.00 | 97 | 1008.9 |
| 20260510042750 | 51 | 244 | 0.0 | 0.0 | 0.00 | 0.32 | 0.00 | 97 | 1009.1 |
| 20260510042645 | 51 | 244 | 0.0 | 0.0 | 0.00 | 0.32 | 0.00 | 97 | 1009.1 |
| 20260510042539 | 51 | 244 | 0.0 | 3.0 | 0.00 | 0.32 | 0.00 | 97 | 1009.0 |
| 20260510042434 | 51 | 247 | 0.0 | 3.0 | 0.00 | 0.32 | 0.00 | 97 | 1009.0 |
| 20260510042333 | 51 | 247 | 0.0 | 3.0 | 0.00 | 0.32 | 0.00 | 97 | 1009.0 |
| 20260510041529 | 51 | 292 | 0.0 | 0.0 | 0.00 | 0.32 | 0.00 | 97 | 1009.0 |
| 20260510041422 | 50 | 292 | 0.0 | 0.0 | 0.00 | 0.32 | 0.00 | 97 | 1009.1 |
| 20260510041315 | 50 | 292 | 0.0 | 0.0 | 0.00 | 0.32 | 0.00 | 97 | 1009.0 |
| 20260510041208 | 50 | 292 | 0.0 | 0.0 | 0.00 | 0.32 | 0.00 | 97 | 1009.0 |
| 20260510041103 | 50 | 292 | 0.0 | 0.0 | 0.00 | 0.32 | 0.00 | 97 | 1008.9 |
| 20260510041001 | 50 | 292 | 0.0 | 0.0 | 0.00 | 0.32 | 0.00 | 97 | 1008.9 |
| 20260510040855 | 50 | 292 | 0.0 | 0.0 | 0.00 | 0.32 | 0.00 | 97 | 1008.9 |
| 20260510040751 | 50 | 292 | 0.0 | 0.0 | 0.00 | 0.32 | 0.00 | 97 | 1008.9 |
| 20260510040644 | 50 | 292 | 0.0 | 0.0 | 0.00 | 0.32 | 0.00 | 97 | 1008.8 |
| 20260510040542 | 50 | 292 | 0.0 | 0.0 | 0.00 | 0.32 | 0.00 | 97 | 1008.9 |
| 20260510040433 | 50 | 292 | 0.0 | 0.0 | 0.00 | 0.32 | 0.00 | 97 | 1008.8 |
| 20260510040331 | 50 | 292 | 0.0 | 0.0 | 0.00 | 0.32 | 0.00 | 97 | 1008.8 |
| 20260510040223 | 50 | 292 | 0.0 | 0.0 | 0.00 | 0.32 | 0.00 | 97 | 1008.8 |
| 20260510040117 | 50 | 292 | 0.0 | 1.0 | 0.00 | 0.32 | 0.00 | 99 | 1008.8 |
| 20260510040011 | 50 | 292 | 0.0 | 1.0 | 0.00 | 0.32 | 0.00 | 99 | 1008.8 |
| 20260510035908 | 50 | 292 | 0.0 | 1.0 | 0.00 | 0.32 | 0.33 | 99 | 1008.8 |
| 20260510035804 | 50 | 292 | 0.0 | 0.0 | 0.00 | 0.32 | 0.33 | 99 | 1008.9 |
| 20260510035439 | 50 | 292 | 0.0 | 0.0 | 0.00 | 0.32 | 0.33 | 99 | 1008.9 |
| 20260510035335 | 50 | 292 | 0.0 | 0.0 | 0.00 | 0.32 | 0.33 | 99 | 1009.0 |
| 20260510035232 | 50 | 292 | 0.0 | 0.0 | 0.00 | 0.32 | 0.33 | 99 | 1009.0 |
| 20260510035129 | 50 | 292 | 0.0 | 0.0 | 0.00 | 0.32 | 0.33 | 99 | 1009.0 |
| 20260510035026 | 50 | 292 | 0.0 | 0.0 | 0.00 | 0.32 | 0.33 | 99 | 1009.0 |
| 20260510034923 | 50 | 292 | 0.0 | 0.0 | 0.00 | 0.32 | 0.33 | 99 | 1009.0 |
| 20260510034818 | 50 | 292 | 0.0 | 0.0 | 0.00 | 0.32 | 0.33 | 99 | 1008.9 |
| 20260510034711 | 50 | 292 | 0.0 | 0.0 | 0.00 | 0.32 | 0.33 | 99 | 1009.0 |
| 20260510034602 | 50 | 292 | 0.0 | 0.0 | 0.00 | 0.32 | 0.33 | 99 | 1009.0 |
| 20260510034456 | 50 | 292 | 0.0 | 0.0 | 0.00 | 0.32 | 0.33 | 99 | 1009.0 |
| 20260510034352 | 50 | 292 | 0.0 | 0.0 | 0.00 | 0.32 | 0.33 | 99 | 1009.0 |
| 20260510034245 | 50 | 292 | 0.0 | 0.0 | 0.00 | 0.32 | 0.33 | 99 | 1009.0 |
| 20260510034141 | 50 | 292 | 0.0 | 0.0 | 0.00 | 0.32 | 0.33 | 99 | 1009.0 |
| 20260510034037 | 50 | 292 | 0.0 | 0.0 | 0.00 | 0.32 | 0.33 | 99 | 1009.0 |
| 20260510033714 | 50 | 292 | 0.0 | 0.0 | 0.00 | 0.32 | 0.33 | 99 | 1008.9 |
| 20260510033611 | 50 | 292 | 0.0 | 0.0 | 0.00 | 0.32 | 0.33 | 99 | 1008.9 |
| 20260510033506 | 50 | 292 | 0.0 | 0.0 | 0.00 | 0.32 | 0.33 | 99 | 1008.9 |
| 20260510033400 | 50 | 292 | 0.0 | 0.0 | 0.00 | 0.32 | 0.33 | 99 | 1008.9 |
| 20260510033255 | 50 | 292 | 0.0 | 0.0 | 0.00 | 0.32 | 0.33 | 99 | 1008.8 |
| 20260510033152 | 50 | 292 | 0.0 | 0.0 | 0.00 | 0.32 | 0.33 | 99 | 1008.8 |
| 20260510033049 | 50 | 292 | 0.0 | 0.0 | 0.00 | 0.32 | 0.33 | 99 | 1008.8 |
| 20260510032944 | 50 | 292 | 0.0 | 0.0 | 0.00 | 0.32 | 0.33 | 99 | 1008.8 |
| 20260510032839 | 50 | 292 | 0.0 | 0.0 | 0.00 | 0.32 | 0.33 | 99 | 1008.8 |
| 20260510032733 | 50 | 292 | 0.0 | 0.0 | 0.00 | 0.32 | 0.33 | 99 | 1008.8 |
| 20260510032631 | 50 | 292 | 0.0 | 0.0 | 0.00 | 0.32 | 0.33 | 99 | 1008.8 |
| 20260510032525 | 50 | 292 | 0.0 | 0.0 | 0.00 | 0.32 | 0.33 | 99 | 1008.8 |
| 20260510032422 | 50 | 292 | 0.0 | 0.0 | 0.00 | 0.32 | 0.33 | 99 | 1008.8 |
| 20260510032318 | 50 | 292 | 0.0 | 0.0 | 0.00 | 0.32 | 0.33 | 99 | 1008.7 |
| 20260510032213 | 50 | 292 | 0.0 | 0.0 | 0.00 | 0.32 | 0.33 | 99 | 1008.7 |
| 20260510031850 | 50 | 292 | 0.0 | 0.0 | 0.00 | 0.32 | 0.33 | 99 | 1008.8 |
| 20260510031747 | 50 | 292 | 0.0 | 0.0 | 0.00 | 0.32 | 0.33 | 99 | 1008.8 |
| 20260510031642 | 50 | 292 | 0.0 | 0.0 | 0.00 | 0.32 | 0.33 | 99 | 1008.8 |
| 20260510031540 | 50 | 292 | 0.0 | 0.0 | 0.00 | 0.32 | 0.33 | 99 | 1008.8 |
| 20260510031436 | 50 | 292 | 0.0 | 0.0 | 0.00 | 0.32 | 0.33 | 99 | 1008.8 |
| 20260510031332 | 50 | 292 | 0.0 | 0.0 | 0.00 | 0.32 | 0.33 | 99 | 1008.8 |
| 20260510031228 | 50 | 292 | 0.0 | 0.0 | 0.00 | 0.32 | 0.33 | 99 | 1008.8 |
| 20260510030902 | 50 | 292 | 0.0 | 0.0 | 0.00 | 0.32 | 0.33 | 99 | 1008.8 |
| 20260510030757 | 50 | 292 | 0.0 | 0.0 | 0.00 | 0.32 | 0.33 | 99 | 1008.9 |
| 20260510030652 | 50 | 292 | 0.0 | 0.0 | 0.00 | 0.32 | 0.33 | 99 | 1008.9 |
| 20260510030546 | 50 | 292 | 0.0 | 0.0 | 0.00 | 0.32 | 0.33 | 99 | 1008.9 |
| 20260510030443 | 50 | 292 | 0.0 | 0.0 | 0.00 | 0.32 | 0.33 | 99 | 1008.9 |
| 20260510030340 | 50 | 292 | 0.0 | 0.0 | 0.00 | 0.32 | 0.33 | 99 | 1009.0 |
| 20260510030234 | 50 | 292 | 0.0 | 0.0 | 0.00 | 0.32 | 0.33 | 99 | 1009.0 |
| 20260510030131 | 50 | 292 | 0.0 | 0.0 | 0.00 | 0.32 | 0.33 | 99 | 1009.1 |
| 20260510025329 | 49 | 292 | 0.0 | 0.0 | 0.00 | 0.32 | 0.33 | 99 | 1009.1 |
| 20260510025224 | 49 | 292 | 0.0 | 0.0 | 0.00 | 0.32 | 0.33 | 99 | 1009.0 |
| 20260510025116 | 49 | 292 | 0.0 | 0.0 | 0.00 | 0.32 | 0.33 | 99 | 1009.1 |
| 20260510025009 | 49 | 292 | 0.0 | 0.0 | 0.00 | 0.32 | 0.33 | 99 | 1009.1 |
| 20260510024904 | 49 | 292 | 0.0 | 0.0 | 0.00 | 0.32 | 0.33 | 99 | 1009.1 |
| 20260510024539 | 49 | 292 | 0.0 | 0.0 | 0.00 | 0.32 | 0.33 | 99 | 1009.0 |
| 20260510024435 | 49 | 292 | 0.0 | 0.0 | 0.00 | 0.32 | 0.33 | 99 | 1009.1 |
| 20260510024333 | 49 | 292 | 0.0 | 0.0 | 0.00 | 0.32 | 0.33 | 99 | 1009.1 |
| 20260510024228 | 49 | 292 | 0.0 | 0.0 | 0.00 | 0.32 | 0.33 | 99 | 1009.1 |
| 20260510023901 | 49 | 292 | 0.0 | 0.0 | 0.00 | 0.32 | 0.33 | 99 | 1009.1 |
| 20260510023754 | 49 | 292 | 0.0 | 0.0 | 0.00 | 0.32 | 0.33 | 99 | 1009.2 |
| 20260510023429 | 49 | 292 | 0.0 | 0.0 | 0.00 | 0.32 | 0.33 | 99 | 1009.2 |
| 20260510023325 | 49 | 292 | 0.0 | 0.0 | 0.00 | 0.32 | 0.33 | 99 | 1009.2 |
| 20260510023219 | 49 | 292 | 0.0 | 0.0 | 0.00 | 0.32 | 0.33 | 99 | 1009.1 |
| 20260510022853 | 49 | 292 | 0.0 | 0.0 | 0.00 | 0.32 | 0.33 | 99 | 1009.1 |
| 20260510022745 | 49 | 292 | 0.0 | 0.0 | 0.00 | 0.32 | 0.33 | 99 | 1009.1 |
| 20260510022636 | 49 | 292 | 0.0 | 0.0 | 0.00 | 0.32 | 0.33 | 98 | 1009.0 |
| 20260510022529 | 49 | 292 | 0.0 | 0.0 | 0.00 | 0.32 | 0.33 | 98 | 1009.0 |
| 20260510022427 | 49 | 292 | 0.0 | 0.0 | 0.00 | 0.32 | 0.33 | 98 | 1009.0 |
| 20260510022321 | 49 | 292 | 0.0 | 0.0 | 0.00 | 0.32 | 0.33 | 99 | 1009.0 |
| 20260510022217 | 49 | 292 | 0.0 | 0.0 | 0.00 | 0.32 | 0.33 | 99 | 1009.0 |
| 20260510021849 | 49 | 292 | 0.0 | 0.0 | 0.00 | 0.32 | 0.33 | 99 | 1009.0 |
| 20260510021743 | 49 | 292 | 0.0 | 0.0 | 0.00 | 0.32 | 0.33 | 98 | 1009.1 |
| 20260510021640 | 49 | 292 | 0.0 | 0.0 | 0.00 | 0.32 | 0.33 | 98 | 1009.0 |
| 20260510021537 | 49 | 292 | 0.0 | 0.0 | 0.00 | 0.32 | 0.33 | 98 | 1008.9 |
| 20260510021430 | 49 | 292 | 0.0 | 1.0 | 0.00 | 0.32 | 0.33 | 98 | 1009.0 |
| 20260510021104 | 49 | 292 | 0.0 | 0.0 | 0.00 | 0.32 | 0.33 | 98 | 1008.9 |
| 20260510021000 | 49 | 292 | 0.0 | 0.0 | 0.00 | 0.32 | 0.33 | 98 | 1008.9 |
| 20260510020636 | 49 | 292 | 0.0 | 0.0 | 0.00 | 0.32 | 0.33 | 98 | 1008.9 |
| 20260510020313 | 49 | 292 | 0.0 | 0.0 | 0.00 | 0.32 | 0.33 | 98 | 1008.9 |
| 20260510020207 | 49 | 292 | 0.0 | 0.0 | 0.00 | 0.32 | 0.33 | 98 | 1008.9 |
| 20260510015958 | 49 | 292 | 0.0 | 0.0 | 0.00 | 0.32 | 0.33 | 98 | 1009.0 |
| 20260510015636 | 49 | 292 | 0.0 | 0.0 | 0.00 | 0.32 | 0.33 | 98 | 1009.1 |
| 20260510015531 | 49 | 292 | 0.0 | 0.0 | 0.00 | 0.32 | 0.33 | 98 | 1009.2 |
| 20260510015426 | 49 | 292 | 0.0 | 0.0 | 0.00 | 0.32 | 0.33 | 98 | 1009.2 |
| 20260510015323 | 49 | 292 | 0.0 | 0.0 | 0.00 | 0.32 | 0.33 | 98 | 1009.2 |
| 20260510015221 | 49 | 292 | 0.0 | 0.0 | 0.00 | 0.32 | 0.33 | 98 | 1009.2 |
| 20260510015116 | 49 | 292 | 0.0 | 0.0 | 0.00 | 0.32 | 0.33 | 98 | 1009.2 |
| 20260510015009 | 49 | 292 | 0.0 | 0.0 | 0.00 | 0.32 | 0.33 | 98 | 1009.2 |
| 20260510014907 | 49 | 292 | 0.0 | 0.0 | 0.00 | 0.32 | 0.33 | 98 | 1009.1 |
| 20260510014802 | 49 | 292 | 0.0 | 0.0 | 0.00 | 0.32 | 0.33 | 98 | 1009.1 |
| 20260510014658 | 49 | 292 | 0.0 | 0.0 | 0.00 | 0.32 | 0.33 | 98 | 1009.1 |
| 20260510014550 | 49 | 292 | 0.0 | 0.0 | 0.00 | 0.32 | 0.33 | 98 | 1009.0 |
| 20260510014448 | 49 | 292 | 0.0 | 0.0 | 0.00 | 0.32 | 0.33 | 98 | 1008.9 |
| 20260510014340 | 49 | 292 | 0.0 | 0.0 | 0.00 | 0.32 | 0.33 | 98 | 1009.0 |
| 20260510013753 | 49 | 292 | 0.0 | 0.0 | 0.00 | 0.32 | 0.33 | 98 | 1008.9 |
| 20260510013649 | 49 | 292 | 0.0 | 0.0 | 0.00 | 0.32 | 0.33 | 98 | 1008.9 |
| 20260510013546 | 49 | 292 | 0.0 | 0.0 | 0.00 | 0.32 | 0.33 | 98 | 1009.0 |
| 20260510013440 | 49 | 292 | 0.0 | 0.0 | 0.00 | 0.32 | 0.33 | 98 | 1009.0 |
| 20260510013332 | 49 | 292 | 0.0 | 0.0 | 0.00 | 0.32 | 0.33 | 98 | 1009.0 |
| 20260510013229 | 49 | 292 | 0.0 | 0.0 | 0.00 | 0.32 | 0.33 | 98 | 1009.0 |
| 20260510013124 | 49 | 292 | 0.0 | 0.0 | 0.00 | 0.32 | 0.33 | 98 | 1009.0 |
| 20260510013018 | 49 | 292 | 0.0 | 0.0 | 0.00 | 0.32 | 0.33 | 98 | 1009.1 |
| 20260510012915 | 49 | 292 | 0.0 | 0.0 | 0.00 | 0.32 | 0.33 | 98 | 1009.1 |
| 20260510012810 | 49 | 292 | 0.0 | 0.0 | 0.00 | 0.32 | 0.33 | 98 | 1009.1 |
| 20260510012445 | 49 | 292 | 0.0 | 0.0 | 0.00 | 0.32 | 0.33 | 98 | 1009.2 |
| 20260510012342 | 49 | 292 | 0.0 | 0.0 | 0.00 | 0.32 | 0.33 | 98 | 1009.2 |
| 20260510012238 | 49 | 292 | 0.0 | 0.0 | 0.00 | 0.32 | 0.33 | 98 | 1009.2 |
| 20260510012133 | 49 | 292 | 0.0 | 0.0 | 0.00 | 0.32 | 0.33 | 98 | 1009.1 |
| 20260510012026 | 49 | 292 | 0.0 | 0.0 | 0.00 | 0.32 | 0.33 | 98 | 1009.2 |
| 20260510011919 | 49 | 292 | 0.0 | 0.0 | 0.00 | 0.32 | 0.33 | 98 | 1009.1 |
| 20260510011814 | 49 | 292 | 0.0 | 0.0 | 0.00 | 0.32 | 0.33 | 98 | 1009.1 |
| 20260510011454 | 49 | 292 | 0.0 | 0.0 | 0.00 | 0.32 | 0.33 | 98 | 1009.1 |
| 20260510011123 | 49 | 292 | 0.0 | 0.0 | 0.00 | 0.32 | 0.33 | 98 | 1009.0 |
| 20260510011015 | 49 | 292 | 0.0 | 0.0 | 0.00 | 0.32 | 0.33 | 98 | 1008.9 |
| 20260510010908 | 49 | 292 | 0.0 | 0.0 | 0.00 | 0.32 | 0.33 | 98 | 1008.9 |
| 20260510010802 | 49 | 292 | 0.0 | 0.0 | 0.00 | 0.32 | 0.33 | 98 | 1009.0 |
| 20260510010655 | 49 | 292 | 0.0 | 0.0 | 0.00 | 0.32 | 0.33 | 98 | 1009.0 |
| 20260510010550 | 49 | 292 | 0.0 | 0.0 | 0.00 | 0.32 | 0.33 | 98 | 1009.0 |
| 20260510010448 | 49 | 292 | 0.0 | 0.0 | 0.00 | 0.32 | 0.33 | 98 | 1009.0 |
| 20260510010346 | 49 | 292 | 0.0 | 0.0 | 0.00 | 0.32 | 0.33 | 98 | 1009.1 |
| 20260510010241 | 49 | 292 | 0.0 | 0.0 | 0.00 | 0.32 | 0.33 | 98 | 1009.0 |
| 20260510010139 | 49 | 292 | 0.0 | 0.0 | 0.00 | 0.32 | 0.33 | 98 | 1009.0 |
| 20260510010032 | 49 | 292 | 0.0 | 0.0 | 0.00 | 0.32 | 0.33 | 98 | 1009.0 |
| 20260510005929 | 49 | 292 | 0.0 | 0.0 | 0.00 | 0.32 | 0.33 | 98 | 1009.0 |
| 20260510005824 | 49 | 292 | 0.0 | 0.0 | 0.00 | 0.32 | 0.33 | 98 | 1009.0 |
| 20260510005717 | 49 | 292 | 0.0 | 0.0 | 0.00 | 0.32 | 0.33 | 98 | 1009.0 |
| 20260510005613 | 49 | 292 | 0.0 | 0.0 | 0.00 | 0.32 | 0.33 | 98 | 1009.0 |
| 20260510005507 | 49 | 292 | 0.0 | 0.0 | 0.00 | 0.32 | 0.33 | 98 | 1009.0 |
| 20260510005400 | 49 | 292 | 0.0 | 0.0 | 0.00 | 0.32 | 0.33 | 98 | 1009.0 |
| 20260510005253 | 49 | 292 | 0.0 | 0.0 | 0.00 | 0.32 | 0.33 | 98 | 1009.0 |
| 20260510005151 | 49 | 292 | 0.0 | 0.0 | 0.00 | 0.32 | 0.33 | 98 | 1008.9 |
| 20260510005047 | 49 | 292 | 0.0 | 0.0 | 0.00 | 0.32 | 0.33 | 98 | 1009.0 |
| 20260510004941 | 49 | 292 | 0.0 | 0.0 | 0.00 | 0.32 | 0.33 | 98 | 1009.0 |
| 20260510004837 | 49 | 292 | 0.0 | 0.0 | 0.00 | 0.32 | 0.33 | 98 | 1009.0 |
| 20260510004509 | 49 | 292 | 0.0 | 0.0 | 0.00 | 0.32 | 0.33 | 98 | 1008.9 |
| 20260510004405 | 49 | 292 | 0.0 | 0.0 | 0.00 | 0.32 | 0.33 | 98 | 1008.9 |
| 20260510004303 | 49 | 292 | 0.0 | 0.0 | 0.00 | 0.32 | 0.33 | 98 | 1008.9 |
| 20260510003937 | 49 | 292 | 0.0 | 0.0 | 0.00 | 0.32 | 0.33 | 98 | 1008.9 |
| 20260510003832 | 49 | 292 | 0.0 | 0.0 | 0.00 | 0.32 | 0.33 | 98 | 1008.9 |
| 20260510003509 | 49 | 292 | 0.0 | 0.0 | 0.00 | 0.32 | 0.33 | 98 | 1009.0 |
| 20260510003143 | 49 | 292 | 0.0 | 0.0 | 0.00 | 0.32 | 0.33 | 98 | 1009.0 |
| 20260510003037 | 49 | 292 | 0.0 | 0.0 | 0.00 | 0.32 | 0.33 | 98 | 1009.0 |
| 20260510002931 | 49 | 292 | 0.0 | 0.0 | 0.00 | 0.32 | 0.33 | 98 | 1008.9 |
| 20260510002827 | 49 | 292 | 0.0 | 0.0 | 0.00 | 0.32 | 0.33 | 98 | 1008.9 |
| 20260510002723 | 49 | 292 | 0.0 | 0.0 | 0.00 | 0.32 | 0.33 | 98 | 1008.9 |
| 20260510002617 | 49 | 292 | 0.0 | 0.0 | 0.00 | 0.32 | 0.33 | 98 | 1008.9 |
| 20260510002509 | 49 | 292 | 0.0 | 0.0 | 0.00 | 0.32 | 0.33 | 98 | 1008.8 |
| 20260510002404 | 49 | 292 | 0.0 | 0.0 | 0.00 | 0.32 | 0.33 | 98 | 1008.8 |
| 20260510002300 | 49 | 292 | 0.0 | 0.0 | 0.00 | 0.32 | 0.33 | 98 | 1008.8 |
| 20260510002156 | 49 | 292 | 0.0 | 0.0 | 0.00 | 0.32 | 0.33 | 98 | 1008.8 |
| 20260510002049 | 49 | 292 | 0.0 | 0.0 | 0.00 | 0.32 | 0.33 | 98 | 1008.7 |
| 20260510001245 | 49 | 292 | 0.0 | 0.0 | 0.00 | 0.32 | 0.33 | 98 | 1008.6 |
| 20260510000703 | 49 | 292 | 0.0 | 0.0 | 0.00 | 0.32 | 0.33 | 98 | 1008.5 |
| 20260510000118 | 50 | 292 | 0.0 | 0.0 | 0.00 | 0.32 | 0.33 | 96 | 1008.4 |
| 20260510000013 | 50 | 292 | 0.0 | 0.0 | 0.00 | 0.32 | 0.33 | 96 | 1008.4 |
| 20260509235906 | 50 | 292 | 0.0 | 0.0 | 0.00 | 0.32 | 0.33 | 96 | 1008.4 |
| 20260509235543 | 50 | 292 | 0.0 | 0.0 | 0.00 | 0.32 | 0.33 | 96 | 1008.3 |
| 20260509235218 | 50 | 292 | 0.0 | 0.0 | 0.00 | 0.32 | 0.33 | 96 | 1008.3 |
| 20260509235113 | 50 | 292 | 0.0 | 0.0 | 0.00 | 0.32 | 0.33 | 96 | 1008.3 |
| 20260509235009 | 50 | 292 | 0.0 | 0.0 | 0.00 | 0.32 | 0.33 | 96 | 1008.3 |
| 20260509234901 | 50 | 292 | 0.0 | 0.0 | 0.00 | 0.32 | 0.33 | 96 | 1008.3 |
| 20260509234538 | 50 | 292 | 0.0 | 0.0 | 0.00 | 0.32 | 0.33 | 96 | 1008.4 |
| 20260509234434 | 50 | 292 | 0.0 | 0.0 | 0.00 | 0.32 | 0.33 | 96 | 1008.3 |
| 20260509234328 | 50 | 292 | 0.0 | 0.0 | 0.00 | 0.32 | 0.33 | 96 | 1008.3 |
| 20260509234223 | 50 | 292 | 0.0 | 0.0 | 0.00 | 0.32 | 0.33 | 96 | 1008.3 |
| 20260509234116 | 50 | 292 | 0.0 | 0.0 | 0.00 | 0.32 | 0.33 | 96 | 1008.4 |
| 20260509234008 | 50 | 292 | 0.0 | 0.0 | 0.00 | 0.32 | 0.33 | 96 | 1008.3 |
| 20260509233641 | 50 | 292 | 0.0 | 0.0 | 0.00 | 0.32 | 0.33 | 96 | 1008.3 |
| 20260509233539 | 50 | 292 | 0.0 | 0.0 | 0.00 | 0.32 | 0.33 | 96 | 1008.3 |
| 20260509233431 | 50 | 292 | 0.0 | 0.0 | 0.00 | 0.32 | 0.33 | 96 | 1008.3 |
| 20260509233324 | 50 | 292 | 0.0 | 0.0 | 0.00 | 0.32 | 0.33 | 96 | 1008.3 |
| 20260509233219 | 50 | 292 | 0.0 | 0.0 | 0.00 | 0.32 | 0.33 | 96 | 1008.3 |
| 20260509233116 | 50 | 292 | 0.0 | 0.0 | 0.00 | 0.32 | 0.33 | 96 | 1008.3 |
| 20260509233012 | 50 | 292 | 0.0 | 0.0 | 0.00 | 0.32 | 0.33 | 96 | 1008.3 |
| 20260509232907 | 50 | 292 | 0.0 | 0.0 | 0.00 | 0.32 | 0.33 | 96 | 1008.3 |
| 20260509232800 | 50 | 292 | 0.0 | 0.0 | 0.00 | 0.32 | 0.33 | 96 | 1008.3 |
| 20260509232655 | 50 | 292 | 0.0 | 0.0 | 0.00 | 0.32 | 0.33 | 96 | 1008.2 |
| 20260509232551 | 50 | 292 | 0.0 | 0.0 | 0.00 | 0.32 | 0.33 | 96 | 1008.2 |
| 20260509232444 | 50 | 292 | 0.0 | 0.0 | 0.00 | 0.32 | 0.33 | 96 | 1008.2 |
| 20260509232335 | 50 | 292 | 0.0 | 0.0 | 0.00 | 0.32 | 0.33 | 96 | 1008.2 |
| 20260509232228 | 50 | 292 | 0.0 | 0.0 | 0.00 | 0.32 | 0.33 | 96 | 1008.2 |
| 20260509232124 | 50 | 292 | 0.0 | 0.0 | 0.00 | 0.32 | 0.33 | 96 | 1008.2 |
| 20260509232021 | 50 | 292 | 0.0 | 0.0 | 0.00 | 0.32 | 0.33 | 96 | 1008.2 |
| 20260509231919 | 50 | 292 | 0.0 | 0.0 | 0.00 | 0.32 | 0.33 | 96 | 1008.1 |
| 20260509231812 | 50 | 292 | 0.0 | 0.0 | 0.00 | 0.32 | 0.33 | 96 | 1008.1 |
| 20260509231706 | 50 | 292 | 0.0 | 0.0 | 0.00 | 0.32 | 0.33 | 96 | 1008.1 |
| 20260509231603 | 50 | 292 | 0.0 | 0.0 | 0.00 | 0.32 | 0.33 | 96 | 1008.1 |
| 20260509231455 | 50 | 292 | 0.0 | 0.0 | 0.00 | 0.32 | 0.33 | 96 | 1008.0 |
| 20260509231352 | 50 | 292 | 0.0 | 0.0 | 0.00 | 0.32 | 0.33 | 95 | 1008.0 |
| 20260509231245 | 50 | 292 | 0.0 | 0.0 | 0.00 | 0.32 | 0.33 | 95 | 1008.0 |
| 20260509230655 | 50 | 292 | 0.0 | 0.0 | 0.00 | 0.32 | 0.33 | 95 | 1008.1 |
| 20260509230548 | 50 | 292 | 0.0 | 0.0 | 0.00 | 0.32 | 0.33 | 95 | 1008.1 |
| 20260509230004 | 50 | 292 | 0.0 | 0.0 | 0.00 | 0.32 | 0.33 | 95 | 1008.0 |
| 20260509225857 | 50 | 292 | 0.0 | 0.0 | 0.00 | 0.32 | 0.33 | 95 | 1008.1 |
| 20260509225753 | 50 | 292 | 0.0 | 0.0 | 0.00 | 0.32 | 0.33 | 95 | 1008.1 |
| 20260509225646 | 50 | 292 | 0.0 | 1.0 | 0.00 | 0.32 | 0.33 | 95 | 1008.1 |
| 20260509225539 | 50 | 292 | 0.0 | 1.0 | 0.00 | 0.32 | 0.33 | 95 | 1008.1 |
| 20260509225435 | 50 | 292 | 0.0 | 1.0 | 0.00 | 0.32 | 0.33 | 95 | 1008.2 |
| 20260509225329 | 50 | 292 | 0.0 | 1.0 | 0.00 | 0.32 | 0.33 | 95 | 1008.1 |
| 20260509225222 | 50 | 292 | 0.0 | 1.0 | 0.00 | 0.32 | 0.33 | 95 | 1008.1 |
| 20260509224634 | 50 | 292 | 0.0 | 0.0 | 0.00 | 0.32 | 0.33 | 95 | 1008.1 |
| 20260509224531 | 50 | 292 | 0.0 | 0.0 | 0.00 | 0.32 | 0.33 | 95 | 1008.1 |
| 20260509224427 | 50 | 292 | 0.0 | 0.0 | 0.00 | 0.32 | 0.33 | 95 | 1008.1 |
| 20260509224321 | 50 | 292 | 0.0 | 0.0 | 0.00 | 0.32 | 0.33 | 95 | 1008.1 |
| 20260509224218 | 50 | 292 | 0.0 | 0.0 | 0.00 | 0.32 | 0.33 | 95 | 1008.1 |
| 20260509224110 | 50 | 292 | 0.0 | 0.0 | 0.00 | 0.32 | 0.33 | 95 | 1008.1 |
| 20260509224008 | 50 | 292 | 0.0 | 0.0 | 0.00 | 0.32 | 0.33 | 95 | 1008.1 |
| 20260509223903 | 50 | 292 | 0.0 | 0.0 | 0.00 | 0.32 | 0.33 | 95 | 1008.1 |
| 20260509223800 | 50 | 292 | 0.0 | 0.0 | 0.00 | 0.32 | 0.33 | 95 | 1008.1 |
| 20260509223654 | 50 | 292 | 0.0 | 0.0 | 0.00 | 0.32 | 0.33 | 95 | 1008.1 |
| 20260509223549 | 49 | 292 | 0.0 | 0.0 | 0.00 | 0.32 | 0.33 | 95 | 1008.1 |
| 20260509223442 | 50 | 292 | 0.0 | 0.0 | 0.00 | 0.32 | 0.33 | 95 | 1008.0 |
| 20260509223335 | 49 | 292 | 0.0 | 0.0 | 0.00 | 0.32 | 0.33 | 95 | 1008.0 |
| 20260509223010 | 50 | 292 | 0.0 | 0.0 | 0.00 | 0.32 | 0.33 | 95 | 1008.1 |
| 20260509222644 | 50 | 292 | 0.0 | 0.0 | 0.00 | 0.32 | 0.33 | 95 | 1008.1 |
| 20260509222537 | 50 | 292 | 0.0 | 0.0 | 0.00 | 0.32 | 0.33 | 95 | 1008.1 |
| 20260509222434 | 49 | 292 | 0.0 | 0.0 | 0.00 | 0.32 | 0.33 | 95 | 1008.2 |
| 20260509222328 | 49 | 292 | 0.0 | 0.0 | 0.00 | 0.32 | 0.33 | 95 | 1008.1 |
| 20260509222223 | 49 | 292 | 0.0 | 0.0 | 0.00 | 0.32 | 0.33 | 95 | 1008.2 |
| 20260509222116 | 49 | 292 | 0.0 | 0.0 | 0.00 | 0.32 | 0.33 | 95 | 1008.2 |
| 20260509222008 | 49 | 292 | 0.0 | 0.0 | 0.00 | 0.32 | 0.33 | 95 | 1008.1 |
| 20260509221906 | 49 | 292 | 0.0 | 0.0 | 0.00 | 0.32 | 0.33 | 95 | 1008.1 |
| 20260509221801 | 49 | 292 | 0.0 | 0.0 | 0.00 | 0.32 | 0.33 | 95 | 1008.2 |
| 20260509221657 | 49 | 292 | 0.0 | 0.0 | 0.00 | 0.32 | 0.33 | 95 | 1008.2 |
| 20260509221550 | 49 | 292 | 0.0 | 0.0 | 0.00 | 0.32 | 0.33 | 95 | 1008.2 |
| 20260509221225 | 49 | 292 | 0.0 | 0.0 | 0.00 | 0.32 | 0.33 | 95 | 1008.2 |
| 20260509220641 | 49 | 292 | 0.0 | 0.0 | 0.00 | 0.32 | 0.33 | 95 | 1008.3 |
| 20260509220320 | 49 | 292 | 0.0 | 0.0 | 0.00 | 0.32 | 0.33 | 95 | 1008.3 |
| 20260509220213 | 49 | 292 | 0.0 | 0.0 | 0.00 | 0.32 | 0.33 | 95 | 1008.3 |
| 20260509215845 | 49 | 292 | 0.0 | 0.0 | 0.00 | 0.32 | 0.33 | 95 | 1008.3 |
| 20260509215519 | 49 | 292 | 0.0 | 0.0 | 0.00 | 0.32 | 0.33 | 95 | 1008.3 |
| 20260509215414 | 49 | 292 | 0.0 | 0.0 | 0.00 | 0.32 | 0.33 | 95 | 1008.4 |
| 20260509214829 | 49 | 292 | 0.0 | 0.0 | 0.00 | 0.32 | 0.33 | 95 | 1008.5 |
| 20260509214727 | 49 | 292 | 0.0 | 0.0 | 0.00 | 0.32 | 0.33 | 95 | 1008.5 |
| 20260509214620 | 49 | 292 | 0.0 | 0.0 | 0.00 | 0.32 | 0.32 | 95 | 1008.6 |
| 20260509214515 | 49 | 292 | 0.0 | 0.0 | 0.00 | 0.32 | 0.32 | 95 | 1008.6 |
| 20260509214408 | 49 | 292 | 0.0 | 0.0 | 0.00 | 0.32 | 0.32 | 95 | 1008.6 |
| 20260509214050 | 49 | 292 | 0.0 | 0.0 | 0.00 | 0.32 | 0.32 | 95 | 1008.6 |
| 20260509213943 | 49 | 292 | 0.0 | 0.0 | 0.00 | 0.32 | 0.32 | 95 | 1008.6 |
| 20260509213836 | 49 | 292 | 0.0 | 0.0 | 0.00 | 0.32 | 0.32 | 95 | 1008.6 |
| 20260509213733 | 49 | 292 | 0.0 | 0.0 | 0.00 | 0.32 | 0.32 | 95 | 1008.6 |
| 20260509213627 | 49 | 292 | 0.0 | 0.0 | 0.00 | 0.32 | 0.32 | 95 | 1008.6 |
| 20260509213520 | 49 | 292 | 0.0 | 0.0 | 0.00 | 0.32 | 0.32 | 95 | 1008.7 |
| 20260509213417 | 49 | 292 | 0.0 | 0.0 | 0.00 | 0.32 | 0.32 | 95 | 1008.7 |
| 20260509213313 | 49 | 292 | 0.0 | 0.0 | 0.00 | 0.32 | 0.32 | 95 | 1008.7 |
| 20260509213209 | 49 | 292 | 0.0 | 0.0 | 0.00 | 0.32 | 0.32 | 95 | 1008.7 |
| 20260509213102 | 49 | 292 | 0.0 | 0.0 | 0.00 | 0.32 | 0.32 | 95 | 1008.7 |
| 20260509212957 | 49 | 292 | 0.0 | 0.0 | 0.00 | 0.32 | 0.32 | 95 | 1008.8 |
| 20260509212850 | 49 | 292 | 0.0 | 0.0 | 0.00 | 0.32 | 0.32 | 95 | 1008.7 |
| 20260509212746 | 49 | 292 | 0.0 | 0.0 | 0.00 | 0.32 | 0.32 | 95 | 1008.8 |
| 20260509212642 | 49 | 292 | 0.0 | 0.0 | 0.00 | 0.32 | 0.32 | 94 | 1008.8 |
| 20260509212536 | 49 | 292 | 0.0 | 0.0 | 0.00 | 0.32 | 0.32 | 94 | 1008.8 |
| 20260509212434 | 49 | 292 | 0.0 | 0.0 | 0.00 | 0.32 | 0.32 | 95 | 1008.8 |
| 20260509212328 | 49 | 292 | 0.0 | 0.0 | 0.00 | 0.32 | 0.32 | 95 | 1008.8 |
| 20260509212220 | 49 | 292 | 0.0 | 0.0 | 0.00 | 0.32 | 0.32 | 95 | 1008.8 |
| 20260509212114 | 49 | 292 | 0.0 | 0.0 | 0.00 | 0.32 | 0.32 | 94 | 1008.8 |
| 20260509212010 | 49 | 292 | 0.0 | 0.0 | 0.00 | 0.31 | 0.32 | 94 | 1008.8 |
| 20260509211907 | 49 | 292 | 0.0 | 0.0 | 0.00 | 0.31 | 0.31 | 94 | 1008.8 |
| 20260509211803 | 49 | 292 | 0.0 | 0.0 | 0.00 | 0.31 | 0.31 | 94 | 1008.8 |
| 20260509211655 | 49 | 292 | 0.0 | 0.0 | 0.00 | 0.31 | 0.31 | 94 | 1008.9 |
| 20260509211549 | 49 | 292 | 0.0 | 0.0 | 0.00 | 0.31 | 0.31 | 94 | 1008.8 |
| 20260509211443 | 49 | 292 | 0.0 | 0.0 | 0.00 | 0.31 | 0.31 | 94 | 1008.9 |
| 20260509211335 | 49 | 292 | 0.0 | 0.0 | 0.00 | 0.31 | 0.31 | 94 | 1008.9 |
| 20260509211232 | 49 | 292 | 0.0 | 0.0 | 0.00 | 0.31 | 0.31 | 94 | 1008.8 |
| 20260509211126 | 49 | 292 | 0.0 | 0.0 | 0.00 | 0.31 | 0.31 | 94 | 1008.8 |
| 20260509211019 | 49 | 292 | 0.0 | 0.0 | 0.00 | 0.31 | 0.31 | 95 | 1008.8 |
| 20260509210917 | 49 | 292 | 0.0 | 0.0 | 0.00 | 0.31 | 0.31 | 94 | 1008.9 |
| 20260509210811 | 49 | 292 | 0.0 | 0.0 | 0.00 | 0.31 | 0.31 | 94 | 1008.9 |
| 20260509210706 | 49 | 292 | 0.0 | 0.0 | 0.00 | 0.31 | 0.31 | 95 | 1008.9 |
| 20260509210600 | 49 | 292 | 0.0 | 0.0 | 0.00 | 0.31 | 0.31 | 95 | 1008.8 |
| 20260509210456 | 49 | 292 | 0.0 | 0.0 | 0.00 | 0.31 | 0.31 | 94 | 1008.9 |
| 20260509210350 | 49 | 292 | 0.0 | 0.0 | 0.00 | 0.31 | 0.31 | 95 | 1008.9 |
| 20260509210247 | 49 | 292 | 0.0 | 0.0 | 0.00 | 0.31 | 0.31 | 94 | 1008.9 |
| 20260509210143 | 49 | 292 | 0.0 | 0.0 | 0.00 | 0.31 | 0.31 | 94 | 1008.9 |
| 20260509210040 | 49 | 292 | 0.0 | 0.0 | 0.00 | 0.31 | 0.31 | 94 | 1008.9 |
| 20260509205933 | 49 | 292 | 0.0 | 0.0 | 0.00 | 0.31 | 0.31 | 94 | 1008.9 |
| 20260509205609 | 49 | 292 | 0.0 | 0.0 | 0.00 | 0.29 | 0.31 | 94 | 1009.0 |
| 20260509205504 | 49 | 292 | 0.0 | 0.0 | 0.00 | 0.29 | 0.30 | 94 | 1009.0 |
| 20260509205402 | 49 | 292 | 0.0 | 0.0 | 0.00 | 0.29 | 0.30 | 94 | 1009.0 |
| 20260509205257 | 49 | 292 | 0.0 | 0.0 | 0.00 | 0.29 | 0.30 | 94 | 1009.0 |
| 20260509205152 | 49 | 292 | 0.0 | 0.0 | 0.00 | 0.29 | 0.30 | 94 | 1009.0 |
| 20260509204825 | 49 | 292 | 0.0 | 0.0 | 0.00 | 0.29 | 0.30 | 94 | 1009.1 |
| 20260509204723 | 49 | 292 | 0.0 | 0.0 | 0.00 | 0.29 | 0.30 | 94 | 1009.1 |
| 20260509204616 | 49 | 292 | 0.0 | 0.0 | 0.00 | 0.29 | 0.30 | 94 | 1009.1 |
| 20260509204512 | 48 | 292 | 0.0 | 0.0 | 0.00 | 0.29 | 0.30 | 94 | 1009.1 |
| 20260509204146 | 48 | 292 | 0.0 | 0.0 | 0.00 | 0.29 | 0.30 | 94 | 1009.1 |
| 20260509204039 | 48 | 292 | 0.0 | 0.0 | 0.00 | 0.29 | 0.30 | 94 | 1009.1 |
| 20260509203935 | 48 | 292 | 0.0 | 0.0 | 0.00 | 0.29 | 0.30 | 94 | 1009.1 |
| 20260509203828 | 48 | 292 | 0.0 | 0.0 | 0.00 | 0.29 | 0.30 | 94 | 1009.1 |
| 20260509203721 | 48 | 292 | 0.0 | 0.0 | 0.00 | 0.29 | 0.30 | 94 | 1009.2 |
| 20260509203618 | 49 | 292 | 0.0 | 0.0 | 0.00 | 0.29 | 0.30 | 94 | 1009.2 |
| 20260509203512 | 48 | 292 | 0.0 | 0.0 | 0.00 | 0.29 | 0.30 | 94 | 1009.1 |
| 20260509203407 | 48 | 292 | 0.0 | 0.0 | 0.00 | 0.29 | 0.30 | 94 | 1009.1 |
| 20260509202821 | 48 | 292 | 0.0 | 0.0 | 0.00 | 0.29 | 0.30 | 94 | 1009.2 |
| 20260509202714 | 48 | 292 | 0.0 | 0.0 | 0.00 | 0.29 | 0.30 | 94 | 1009.2 |
| 20260509202607 | 48 | 292 | 0.0 | 0.0 | 0.00 | 0.29 | 0.30 | 94 | 1009.2 |
| 20260509202500 | 48 | 292 | 0.0 | 0.0 | 0.00 | 0.29 | 0.30 | 94 | 1009.2 |
| 20260509202139 | 48 | 292 | 0.0 | 0.0 | 0.00 | 0.29 | 0.30 | 94 | 1009.3 |
| 20260509201553 | 48 | 292 | 0.0 | 0.0 | 0.00 | 0.29 | 0.30 | 94 | 1009.4 |
| 20260509201447 | 48 | 292 | 0.0 | 0.0 | 0.00 | 0.29 | 0.30 | 94 | 1009.4 |
| 20260509201126 | 48 | 292 | 0.0 | 0.0 | 0.00 | 0.29 | 0.30 | 94 | 1009.5 |
| 20260509201022 | 48 | 292 | 0.0 | 0.0 | 0.00 | 0.29 | 0.30 | 94 | 1009.5 |
| 20260509200917 | 48 | 292 | 0.0 | 0.0 | 0.00 | 0.29 | 0.30 | 93 | 1009.5 |
| 20260509200814 | 48 | 292 | 0.0 | 0.0 | 0.00 | 0.29 | 0.30 | 94 | 1009.6 |
| 20260509200706 | 48 | 292 | 0.0 | 0.0 | 0.00 | 0.29 | 0.30 | 93 | 1009.5 |
| 20260509200559 | 48 | 292 | 0.0 | 0.0 | 0.00 | 0.29 | 0.30 | 93 | 1009.6 |
| 20260509200453 | 48 | 292 | 0.0 | 0.0 | 0.00 | 0.29 | 0.30 | 94 | 1009.5 |
| 20260509200349 | 48 | 292 | 0.0 | 0.0 | 0.00 | 0.29 | 0.30 | 93 | 1009.5 |
| 20260509200242 | 48 | 292 | 0.0 | 0.0 | 0.00 | 0.29 | 0.30 | 93 | 1009.6 |
| 20260509200136 | 48 | 292 | 0.0 | 0.0 | 0.00 | 0.29 | 0.30 | 93 | 1009.6 |
| 20260509200035 | 48 | 292 | 0.0 | 0.0 | 0.00 | 0.29 | 0.30 | 93 | 1009.6 |
| 20260509195931 | 48 | 292 | 0.0 | 0.0 | 0.00 | 0.29 | 0.30 | 93 | 1009.6 |
| 20260509195826 | 48 | 292 | 0.0 | 0.0 | 0.00 | 0.29 | 0.30 | 93 | 1009.6 |
| 20260509195457 | 48 | 292 | 0.0 | 0.0 | 0.00 | 0.29 | 0.30 | 93 | 1009.6 |
| 20260509195353 | 48 | 292 | 0.0 | 0.0 | 0.00 | 0.29 | 0.30 | 93 | 1009.7 |
| 20260509195244 | 48 | 292 | 0.0 | 0.0 | 0.00 | 0.29 | 0.30 | 93 | 1009.7 |
| 20260509195139 | 48 | 292 | 0.0 | 0.0 | 0.00 | 0.29 | 0.30 | 93 | 1009.6 |
| 20260509195033 | 48 | 292 | 0.0 | 0.0 | 0.00 | 0.30 | 0.30 | 93 | 1009.6 |
| 20260509194929 | 48 | 292 | 0.0 | 0.0 | 0.00 | 0.30 | 0.30 | 93 | 1009.6 |
| 20260509194822 | 48 | 292 | 0.0 | 0.0 | 0.00 | 0.30 | 0.30 | 94 | 1009.7 |
| 20260509194717 | 48 | 292 | 0.0 | 0.0 | 0.00 | 0.30 | 0.30 | 93 | 1009.7 |
| 20260509194348 | 48 | 292 | 0.0 | 0.0 | 0.00 | 0.30 | 0.30 | 93 | 1009.8 |
| 20260509194023 | 48 | 292 | 0.0 | 0.0 | 0.00 | 0.30 | 0.30 | 93 | 1009.8 |
| 20260509193919 | 48 | 292 | 0.0 | 0.0 | 0.00 | 0.30 | 0.30 | 93 | 1009.7 |
| 20260509193812 | 48 | 292 | 0.0 | 0.0 | 0.00 | 0.30 | 0.30 | 93 | 1009.8 |
| 20260509193444 | 48 | 292 | 0.0 | 0.0 | 0.00 | 0.30 | 0.30 | 93 | 1009.8 |
| 20260509193342 | 48 | 292 | 0.0 | 0.0 | 0.00 | 0.30 | 0.30 | 93 | 1009.8 |
| 20260509193239 | 48 | 292 | 0.0 | 0.0 | 0.00 | 0.30 | 0.30 | 93 | 1009.8 |
| 20260509193136 | 48 | 292 | 0.0 | 0.0 | 0.00 | 0.30 | 0.30 | 93 | 1009.8 |
| 20260509193029 | 48 | 292 | 0.0 | 0.0 | 0.00 | 0.30 | 0.30 | 93 | 1009.8 |
| 20260509192922 | 48 | 292 | 0.0 | 0.0 | 0.00 | 0.30 | 0.30 | 93 | 1009.8 |
| 20260509192817 | 48 | 292 | 0.0 | 0.0 | 0.00 | 0.30 | 0.30 | 93 | 1009.8 |
| 20260509192715 | 48 | 292 | 0.0 | 0.0 | 0.00 | 0.30 | 0.30 | 93 | 1009.8 |
| 20260509192613 | 48 | 292 | 0.0 | 0.0 | 0.00 | 0.30 | 0.30 | 93 | 1009.8 |
| 20260509192506 | 48 | 292 | 0.0 | 0.0 | 0.00 | 0.30 | 0.30 | 93 | 1009.8 |
| 20260509192403 | 48 | 292 | 0.0 | 0.0 | 0.00 | 0.30 | 0.30 | 93 | 1009.8 |
| 20260509192301 | 48 | 292 | 0.0 | 0.0 | 0.00 | 0.30 | 0.30 | 93 | 1009.8 |
| 20260509192157 | 48 | 292 | 0.0 | 0.0 | 0.00 | 0.30 | 0.30 | 93 | 1009.8 |
| 20260509192054 | 48 | 292 | 0.0 | 0.0 | 0.00 | 0.30 | 0.30 | 93 | 1009.8 |
| 20260509191947 | 48 | 292 | 0.0 | 0.0 | 0.00 | 0.31 | 0.30 | 93 | 1009.8 |
| 20260509191841 | 48 | 292 | 0.0 | 0.0 | 0.00 | 0.31 | 0.30 | 93 | 1009.8 |
| 20260509191738 | 48 | 292 | 0.0 | 0.0 | 0.00 | 0.31 | 0.30 | 93 | 1009.8 |
| 20260509191632 | 48 | 292 | 0.0 | 0.0 | 0.00 | 0.31 | 0.30 | 93 | 1009.8 |
| 20260509191530 | 48 | 292 | 0.0 | 0.0 | 0.00 | 0.31 | 0.30 | 93 | 1009.8 |
| 20260509191423 | 48 | 292 | 0.0 | 0.0 | 0.00 | 0.31 | 0.30 | 93 | 1009.8 |
| 20260509191318 | 48 | 292 | 0.0 | 0.0 | 0.00 | 0.31 | 0.30 | 93 | 1009.8 |
| 20260509191212 | 48 | 292 | 0.0 | 0.0 | 0.00 | 0.31 | 0.30 | 93 | 1009.8 |
| 20260509190851 | 48 | 292 | 0.0 | 0.0 | 0.00 | 0.31 | 0.30 | 93 | 1009.9 |
| 20260509190747 | 48 | 292 | 0.0 | 0.0 | 0.00 | 0.31 | 0.30 | 93 | 1009.9 |
| 20260509190421 | 48 | 292 | 0.0 | 0.0 | 0.00 | 0.31 | 0.30 | 93 | 1009.9 |
| 20260509190318 | 48 | 292 | 0.0 | 0.0 | 0.00 | 0.31 | 0.30 | 93 | 1010.0 |
| 20260509185736 | 48 | 292 | 0.0 | 0.0 | 0.00 | 0.31 | 0.30 | 93 | 1009.9 |
| 20260509185629 | 48 | 292 | 0.0 | 0.0 | 0.00 | 0.31 | 0.30 | 93 | 1010.0 |
| 20260509185521 | 48 | 292 | 0.0 | 0.0 | 0.00 | 0.31 | 0.30 | 93 | 1010.0 |
| 20260509185419 | 48 | 292 | 0.0 | 0.0 | 0.00 | 0.31 | 0.30 | 93 | 1010.1 |
| 20260509185314 | 48 | 292 | 0.0 | 0.0 | 0.00 | 0.31 | 0.30 | 93 | 1010.0 |
| 20260509185209 | 47 | 292 | 0.0 | 0.0 | 0.00 | 0.31 | 0.30 | 93 | 1010.0 |
| 20260509184840 | 47 | 292 | 0.0 | 0.0 | 0.00 | 0.31 | 0.30 | 93 | 1010.1 |
| 20260509184732 | 47 | 292 | 0.0 | 0.0 | 0.00 | 0.31 | 0.30 | 93 | 1010.1 |
| 20260509184629 | 47 | 292 | 0.0 | 0.0 | 0.00 | 0.31 | 0.30 | 93 | 1010.0 |
| 20260509184524 | 47 | 292 | 0.0 | 0.0 | 0.00 | 0.31 | 0.30 | 93 | 1010.1 |
| 20260509184418 | 47 | 292 | 0.0 | 0.0 | 0.00 | 0.31 | 0.30 | 93 | 1010.1 |
| 20260509184315 | 47 | 292 | 0.0 | 0.0 | 0.00 | 0.31 | 0.30 | 93 | 1010.1 |
| 20260509184209 | 47 | 292 | 0.0 | 0.0 | 0.00 | 0.31 | 0.30 | 93 | 1010.1 |
| 20260509184107 | 47 | 292 | 0.0 | 0.0 | 0.00 | 0.31 | 0.30 | 93 | 1010.1 |
| 20260509184002 | 47 | 292 | 0.0 | 0.0 | 0.00 | 0.31 | 0.30 | 93 | 1010.1 |
| 20260509183856 | 47 | 292 | 0.0 | 0.0 | 0.00 | 0.31 | 0.30 | 93 | 1010.1 |
| 20260509183530 | 47 | 292 | 0.0 | 0.0 | 0.00 | 0.31 | 0.30 | 93 | 1010.0 |
| 20260509183424 | 47 | 292 | 0.0 | 0.0 | 0.00 | 0.31 | 0.30 | 93 | 1010.1 |
| 20260509183319 | 47 | 292 | 0.0 | 0.0 | 0.00 | 0.31 | 0.30 | 93 | 1010.0 |
| 20260509183216 | 47 | 292 | 0.0 | 0.0 | 0.00 | 0.31 | 0.30 | 93 | 1010.0 |
| 20260509182851 | 47 | 292 | 0.0 | 0.0 | 0.00 | 0.31 | 0.30 | 93 | 1010.1 |
| 20260509182749 | 47 | 292 | 0.0 | 0.0 | 0.00 | 0.31 | 0.30 | 93 | 1010.1 |
| 20260509182424 | 47 | 292 | 0.0 | 0.0 | 0.00 | 0.31 | 0.30 | 93 | 1010.1 |
| 20260509182057 | 47 | 292 | 0.0 | 0.0 | 0.00 | 0.31 | 0.30 | 93 | 1010.2 |
| 20260509181953 | 47 | 292 | 0.0 | 0.0 | 0.00 | 0.31 | 0.30 | 93 | 1010.2 |
| 20260509181847 | 47 | 292 | 0.0 | 0.0 | 0.00 | 0.31 | 0.30 | 93 | 1010.2 |
| 20260509181743 | 47 | 292 | 0.0 | 0.0 | 0.00 | 0.31 | 0.30 | 93 | 1010.2 |
| 20260509181633 | 47 | 292 | 0.0 | 0.0 | 0.00 | 0.31 | 0.30 | 93 | 1010.1 |
| 20260509181528 | 47 | 292 | 0.0 | 0.0 | 0.00 | 0.31 | 0.30 | 93 | 1010.1 |
| 20260509181421 | 47 | 292 | 0.0 | 0.0 | 0.00 | 0.31 | 0.30 | 93 | 1010.1 |
| 20260509181318 | 47 | 292 | 0.0 | 0.0 | 0.00 | 0.31 | 0.30 | 93 | 1010.1 |
| 20260509180956 | 47 | 292 | 0.0 | 0.0 | 0.00 | 0.31 | 0.30 | 93 | 1010.3 |
| 20260509180850 | 47 | 292 | 0.0 | 0.0 | 0.00 | 0.31 | 0.30 | 93 | 1010.2 |
| 20260509180746 | 47 | 292 | 0.0 | 0.0 | 0.00 | 0.31 | 0.28 | 93 | 1010.2 |
| 20260509180642 | 47 | 292 | 0.0 | 0.0 | 0.00 | 0.31 | 0.28 | 93 | 1010.3 |
| 20260509180536 | 47 | 292 | 0.0 | 0.0 | 0.00 | 0.31 | 0.28 | 93 | 1010.3 |
| 20260509180433 | 47 | 292 | 0.0 | 0.0 | 0.00 | 0.31 | 0.28 | 93 | 1010.2 |
| 20260509180104 | 47 | 292 | 0.0 | 0.0 | 0.00 | 0.31 | 0.28 | 93 | 1010.3 |
| 20260509175959 | 47 | 292 | 0.0 | 0.0 | 0.00 | 0.31 | 0.28 | 93 | 1010.3 |
| 20260509175854 | 47 | 292 | 0.0 | 0.0 | 0.00 | 0.31 | 0.28 | 93 | 1010.3 |
| 20260509175750 | 47 | 292 | 0.0 | 0.0 | 0.00 | 0.31 | 0.28 | 93 | 1010.3 |
| 20260509175643 | 47 | 292 | 0.0 | 0.0 | 0.00 | 0.31 | 0.28 | 93 | 1010.3 |
| 20260509175536 | 47 | 292 | 0.0 | 0.0 | 0.00 | 0.31 | 0.28 | 93 | 1010.3 |
| 20260509175432 | 47 | 292 | 0.0 | 0.0 | 0.00 | 0.31 | 0.28 | 93 | 1010.3 |
| 20260509175327 | 47 | 292 | 0.0 | 0.0 | 0.00 | 0.31 | 0.28 | 93 | 1010.3 |
| 20260509175225 | 47 | 292 | 0.0 | 0.0 | 0.00 | 0.31 | 0.28 | 93 | 1010.3 |
| 20260509175117 | 47 | 292 | 0.0 | 0.0 | 0.00 | 0.31 | 0.28 | 93 | 1010.4 |
| 20260509175016 | 47 | 292 | 0.0 | 0.0 | 0.00 | 0.31 | 0.28 | 93 | 1010.3 |
| 20260509174650 | 47 | 292 | 0.0 | 0.0 | 0.00 | 0.31 | 0.28 | 93 | 1010.3 |
| 20260509174329 | 47 | 292 | 0.0 | 0.0 | 0.00 | 0.31 | 0.28 | 93 | 1010.3 |
| 20260509174223 | 47 | 292 | 0.0 | 0.0 | 0.00 | 0.31 | 0.28 | 93 | 1010.4 |
| 20260509174119 | 47 | 292 | 0.0 | 0.0 | 0.00 | 0.31 | 0.28 | 93 | 1010.3 |
| 20260509173532 | 47 | 292 | 0.0 | 0.0 | 0.00 | 0.31 | 0.28 | 93 | 1010.4 |
| 20260509173425 | 47 | 292 | 0.0 | 0.0 | 0.00 | 0.31 | 0.28 | 93 | 1010.4 |
| 20260509173321 | 47 | 292 | 0.0 | 0.0 | 0.00 | 0.31 | 0.28 | 93 | 1010.4 |
| 20260509173217 | 47 | 292 | 0.0 | 0.0 | 0.00 | 0.31 | 0.28 | 93 | 1010.4 |
| 20260509172857 | 47 | 292 | 0.0 | 0.0 | 0.00 | 0.31 | 0.28 | 93 | 1010.4 |
| 20260509172755 | 47 | 292 | 0.0 | 0.0 | 0.00 | 0.31 | 0.28 | 93 | 1010.4 |
| 20260509172649 | 47 | 292 | 0.0 | 0.0 | 0.00 | 0.31 | 0.28 | 93 | 1010.5 |
| 20260509172544 | 47 | 292 | 0.0 | 0.0 | 0.00 | 0.31 | 0.28 | 93 | 1010.5 |
| 20260509172441 | 47 | 292 | 0.0 | 0.0 | 0.00 | 0.31 | 0.28 | 93 | 1010.5 |
| 20260509172335 | 47 | 292 | 0.0 | 1.0 | 0.00 | 0.31 | 0.28 | 93 | 1010.5 |
| 20260509172228 | 47 | 292 | 0.0 | 1.0 | 0.00 | 0.31 | 0.28 | 93 | 1010.5 |
| 20260509172121 | 47 | 292 | 0.0 | 0.0 | 0.00 | 0.31 | 0.28 | 93 | 1010.5 |
| 20260509172018 | 47 | 292 | 0.0 | 0.0 | 0.00 | 0.31 | 0.28 | 93 | 1010.5 |
| 20260509171911 | 47 | 292 | 0.0 | 0.0 | 0.00 | 0.31 | 0.28 | 93 | 1010.5 |
| 20260509171805 | 47 | 292 | 0.0 | 1.0 | 0.00 | 0.31 | 0.28 | 93 | 1010.5 |
| 20260509171701 | 46 | 292 | 0.0 | 1.0 | 0.00 | 0.31 | 0.28 | 93 | 1010.5 |
| 20260509171556 | 47 | 292 | 0.0 | 0.0 | 0.00 | 0.31 | 0.28 | 93 | 1010.6 |
| 20260509171450 | 46 | 292 | 0.0 | 0.0 | 0.00 | 0.31 | 0.28 | 93 | 1010.5 |
| 20260509171344 | 46 | 292 | 0.0 | 0.0 | 0.00 | 0.30 | 0.28 | 93 | 1010.6 |
| 20260509171237 | 46 | 292 | 0.0 | 0.0 | 0.00 | 0.30 | 0.27 | 93 | 1010.5 |
| 20260509171133 | 46 | 292 | 0.0 | 0.0 | 0.00 | 0.30 | 0.27 | 93 | 1010.5 |
| 20260509171028 | 46 | 292 | 0.0 | 0.0 | 0.00 | 0.30 | 0.27 | 93 | 1010.5 |
| 20260509170924 | 46 | 292 | 0.0 | 0.0 | 0.00 | 0.30 | 0.27 | 93 | 1010.6 |
| 20260509170819 | 46 | 292 | 0.0 | 0.0 | 0.00 | 0.30 | 0.27 | 93 | 1010.6 |
| 20260509170711 | 46 | 292 | 0.0 | 0.0 | 0.00 | 0.30 | 0.27 | 93 | 1010.6 |
| 20260509170608 | 46 | 292 | 0.0 | 0.0 | 0.00 | 0.30 | 0.27 | 93 | 1010.6 |
| 20260509170505 | 46 | 292 | 0.0 | 0.0 | 0.00 | 0.30 | 0.27 | 93 | 1010.6 |
| 20260509170402 | 46 | 292 | 0.0 | 0.0 | 0.00 | 0.30 | 0.27 | 93 | 1010.6 |
| 20260509170254 | 46 | 292 | 0.0 | 0.0 | 0.00 | 0.30 | 0.27 | 93 | 1010.7 |
| 20260509170152 | 46 | 292 | 0.0 | 0.0 | 0.00 | 0.30 | 0.27 | 93 | 1010.8 |
| 20260509165823 | 46 | 292 | 0.0 | 0.0 | 0.00 | 0.30 | 0.27 | 93 | 1010.9 |
| 20260509165718 | 46 | 292 | 0.0 | 0.0 | 0.00 | 0.30 | 0.27 | 93 | 1010.9 |
| 20260509165610 | 46 | 292 | 0.0 | 0.0 | 0.00 | 0.30 | 0.27 | 93 | 1010.9 |
| 20260509165245 | 46 | 290 | 0.0 | 0.0 | 0.00 | 0.30 | 0.27 | 93 | 1010.9 |
| 20260509165139 | 46 | 290 | 0.0 | 0.0 | 0.00 | 0.30 | 0.27 | 93 | 1010.9 |
| 20260509164556 | 46 | 291 | 0.0 | 0.0 | 0.00 | 0.30 | 0.27 | 93 | 1011.0 |
| 20260509164004 | 46 | 293 | 0.0 | 0.0 | 0.04 | 0.30 | 0.27 | 93 | 1011.0 |
| 20260509163639 | 45 | 293 | 0.0 | 0.0 | 0.04 | 0.30 | 0.27 | 93 | 1011.1 |
| 20260509163535 | 45 | 293 | 0.0 | 0.0 | 0.04 | 0.30 | 0.27 | 93 | 1011.0 |
| 20260509163431 | 45 | 293 | 0.0 | 0.0 | 0.04 | 0.30 | 0.27 | 93 | 1011.1 |
| 20260509163325 | 45 | 293 | 0.0 | 0.0 | 0.04 | 0.30 | 0.27 | 93 | 1011.1 |
| 20260509163218 | 45 | 293 | 0.0 | 0.0 | 0.04 | 0.30 | 0.27 | 93 | 1011.1 |
| 20260509162851 | 45 | 293 | 0.0 | 0.0 | 0.04 | 0.30 | 0.27 | 93 | 1011.2 |
| 20260509162744 | 45 | 293 | 0.0 | 0.0 | 0.04 | 0.28 | 0.27 | 93 | 1011.3 |
| 20260509162636 | 45 | 293 | 0.0 | 0.0 | 0.04 | 0.28 | 0.27 | 93 | 1011.3 |
| 20260509162530 | 45 | 293 | 0.0 | 0.0 | 0.04 | 0.28 | 0.27 | 93 | 1011.3 |
| 20260509162423 | 45 | 293 | 0.0 | 0.0 | 0.05 | 0.28 | 0.27 | 93 | 1011.3 |
| 20260509162318 | 45 | 293 | 0.0 | 0.0 | 0.05 | 0.28 | 0.27 | 93 | 1011.3 |
| 20260509161948 | 45 | 293 | 0.0 | 0.0 | 0.06 | 0.28 | 0.27 | 93 | 1011.4 |
| 20260509161843 | 45 | 293 | 0.0 | 0.0 | 0.06 | 0.28 | 0.27 | 93 | 1011.4 |
| 20260509161738 | 45 | 293 | 0.0 | 0.0 | 0.06 | 0.28 | 0.27 | 93 | 1011.4 |
| 20260509161636 | 45 | 293 | 0.0 | 0.0 | 0.06 | 0.28 | 0.27 | 93 | 1011.4 |
| 20260509161529 | 45 | 293 | 0.0 | 0.0 | 0.06 | 0.28 | 0.27 | 93 | 1011.4 |
| 20260509161426 | 45 | 293 | 0.0 | 0.0 | 0.06 | 0.28 | 0.27 | 93 | 1011.4 |
| 20260509161322 | 45 | 293 | 0.0 | 0.0 | 0.06 | 0.28 | 0.27 | 93 | 1011.4 |
| 20260509161220 | 45 | 293 | 0.0 | 0.0 | 0.06 | 0.28 | 0.27 | 93 | 1011.4 |
| 20260509160851 | 45 | 293 | 0.0 | 0.0 | 0.06 | 0.28 | 0.26 | 93 | 1011.5 |
| 20260509160747 | 45 | 293 | 0.0 | 0.0 | 0.06 | 0.28 | 0.26 | 93 | 1011.5 |
| 20260509160640 | 45 | 293 | 0.0 | 0.0 | 0.06 | 0.28 | 0.26 | 93 | 1011.5 |
| 20260509160533 | 45 | 293 | 0.0 | 0.0 | 0.06 | 0.28 | 0.26 | 93 | 1011.5 |
| 20260509160425 | 45 | 293 | 0.0 | 0.0 | 0.06 | 0.28 | 0.26 | 93 | 1011.5 |
| 20260509160321 | 45 | 293 | 0.0 | 0.0 | 0.06 | 0.26 | 0.26 | 93 | 1011.6 |
| 20260509160216 | 45 | 293 | 0.0 | 0.0 | 0.06 | 0.26 | 0.25 | 93 | 1011.6 |
| 20260509160112 | 45 | 293 | 0.0 | 0.0 | 0.06 | 0.26 | 0.25 | 93 | 1011.7 |
| 20260509160009 | 45 | 293 | 0.0 | 0.0 | 0.06 | 0.26 | 0.25 | 93 | 1011.6 |
| 20260509155904 | 45 | 293 | 0.0 | 0.0 | 0.06 | 0.26 | 0.25 | 93 | 1011.6 |
| 20260509155801 | 45 | 293 | 0.0 | 0.0 | 0.06 | 0.26 | 0.25 | 93 | 1011.7 |
| 20260509155657 | 45 | 293 | 0.0 | 0.0 | 0.06 | 0.26 | 0.25 | 93 | 1011.7 |
| 20260509155550 | 45 | 293 | 0.0 | 0.0 | 0.06 | 0.26 | 0.25 | 93 | 1011.7 |
| 20260509155443 | 45 | 293 | 0.0 | 0.0 | 0.06 | 0.26 | 0.25 | 93 | 1011.7 |
| 20260509155338 | 45 | 293 | 0.0 | 0.0 | 0.06 | 0.26 | 0.25 | 93 | 1011.8 |
| 20260509155236 | 45 | 293 | 0.0 | 0.0 | 0.08 | 0.26 | 0.24 | 93 | 1011.8 |
| 20260509155130 | 45 | 293 | 0.0 | 0.0 | 0.09 | 0.26 | 0.24 | 92 | 1011.8 |
| 20260509155025 | 45 | 293 | 0.0 | 0.0 | 0.09 | 0.26 | 0.24 | 92 | 1011.8 |
| 20260509154920 | 45 | 293 | 0.0 | 0.0 | 0.09 | 0.26 | 0.24 | 93 | 1011.8 |
| 20260509154814 | 45 | 293 | 0.0 | 0.0 | 0.09 | 0.26 | 0.24 | 93 | 1011.8 |
| 20260509154006 | 45 | 293 | 0.0 | 0.0 | 0.06 | 0.23 | 0.23 | 92 | 1011.9 |
| 20260509153900 | 45 | 293 | 0.0 | 0.0 | 0.06 | 0.23 | 0.23 | 92 | 1011.9 |
| 20260509153755 | 45 | 293 | 0.0 | 0.0 | 0.06 | 0.23 | 0.21 | 92 | 1012.0 |
| 20260509153648 | 45 | 293 | 0.0 | 0.0 | 0.06 | 0.23 | 0.21 | 92 | 1011.9 |
| 20260509153545 | 45 | 293 | 0.0 | 0.0 | 0.06 | 0.23 | 0.21 | 92 | 1011.9 |
| 20260509153438 | 45 | 293 | 0.0 | 0.0 | 0.06 | 0.23 | 0.21 | 92 | 1011.9 |
| 20260509153336 | 45 | 293 | 0.0 | 0.0 | 0.06 | 0.23 | 0.21 | 92 | 1011.9 |
| 20260509153229 | 45 | 293 | 0.0 | 0.0 | 0.06 | 0.23 | 0.21 | 92 | 1011.9 |
| 20260509153122 | 45 | 293 | 0.0 | 0.0 | 0.06 | 0.23 | 0.21 | 92 | 1011.9 |
| 20260509153021 | 45 | 293 | 0.0 | 0.0 | 0.06 | 0.23 | 0.21 | 92 | 1011.9 |
| 20260509152916 | 45 | 293 | 0.0 | 0.0 | 0.06 | 0.23 | 0.21 | 92 | 1011.9 |
| 20260509152554 | 45 | 293 | 0.0 | 0.0 | 0.06 | 0.23 | 0.21 | 92 | 1012.0 |
| 20260509152447 | 45 | 293 | 0.0 | 0.0 | 0.06 | 0.23 | 0.21 | 92 | 1011.9 |
| 20260509152339 | 45 | 293 | 0.0 | 0.0 | 0.06 | 0.23 | 0.21 | 92 | 1012.0 |
| 20260509152232 | 45 | 293 | 0.0 | 0.0 | 0.06 | 0.23 | 0.21 | 92 | 1012.0 |
| 20260509152126 | 45 | 293 | 0.0 | 0.0 | 0.06 | 0.21 | 0.21 | 92 | 1012.0 |
| 20260509152022 | 45 | 293 | 0.0 | 0.0 | 0.08 | 0.21 | 0.20 | 92 | 1012.0 |
| 20260509151918 | 45 | 293 | 0.0 | 0.0 | 0.09 | 0.21 | 0.20 | 92 | 1012.0 |
| 20260509151555 | 45 | 293 | 0.0 | 0.0 | 0.10 | 0.21 | 0.20 | 92 | 1012.0 |
| 20260509151452 | 45 | 293 | 0.0 | 0.0 | 0.10 | 0.21 | 0.20 | 92 | 1012.0 |
| 20260509151347 | 45 | 293 | 0.0 | 0.0 | 0.10 | 0.21 | 0.20 | 92 | 1012.1 |
| 20260509151242 | 45 | 293 | 0.0 | 0.0 | 0.10 | 0.21 | 0.20 | 92 | 1012.1 |
| 20260509151135 | 45 | 293 | 0.0 | 0.0 | 0.09 | 0.21 | 0.19 | 92 | 1012.1 |
| 20260509150808 | 45 | 293 | 0.0 | 0.0 | 0.09 | 0.20 | 0.19 | 92 | 1012.2 |
| 20260509150704 | 45 | 293 | 0.0 | 0.0 | 0.09 | 0.20 | 0.18 | 92 | 1012.2 |
| 20260509150559 | 45 | 293 | 0.0 | 0.0 | 0.09 | 0.20 | 0.18 | 92 | 1012.2 |
| 20260509150457 | 45 | 293 | 0.0 | 0.0 | 0.09 | 0.20 | 0.18 | 92 | 1012.2 |
| 20260509150351 | 45 | 293 | 0.0 | 0.0 | 0.09 | 0.20 | 0.18 | 92 | 1012.1 |
| 20260509150248 | 45 | 293 | 0.0 | 0.0 | 0.09 | 0.20 | 0.18 | 92 | 1012.1 |
| 20260509150145 | 45 | 293 | 0.0 | 0.0 | 0.09 | 0.18 | 0.18 | 92 | 1012.1 |
| 20260509150039 | 45 | 293 | 0.0 | 0.0 | 0.09 | 0.18 | 0.17 | 92 | 1012.0 |
| 20260509145934 | 45 | 293 | 0.0 | 0.0 | 0.10 | 0.18 | 0.17 | 92 | 1012.1 |
| 20260509145826 | 45 | 293 | 0.0 | 0.0 | 0.10 | 0.18 | 0.17 | 92 | 1012.1 |
| 20260509145718 | 45 | 293 | 0.0 | 0.0 | 0.10 | 0.18 | 0.17 | 92 | 1012.1 |
| 20260509145616 | 45 | 293 | 0.0 | 0.0 | 0.10 | 0.18 | 0.17 | 92 | 1012.1 |
| 20260509145513 | 45 | 293 | 0.0 | 0.0 | 0.10 | 0.18 | 0.17 | 92 | 1012.0 |
| 20260509145409 | 45 | 293 | 0.0 | 0.0 | 0.10 | 0.18 | 0.17 | 92 | 1012.0 |
| 20260509145306 | 45 | 293 | 0.0 | 0.0 | 0.06 | 0.18 | 0.16 | 92 | 1012.0 |
| 20260509144500 | 44 | 293 | 0.0 | 0.0 | 0.06 | 0.16 | 0.15 | 92 | 1012.1 |
| 20260509144356 | 44 | 293 | 0.0 | 0.0 | 0.06 | 0.16 | 0.15 | 92 | 1012.0 |
| 20260509144249 | 44 | 293 | 0.0 | 0.0 | 0.06 | 0.16 | 0.15 | 92 | 1012.1 |
| 20260509144144 | 44 | 293 | 0.0 | 0.0 | 0.06 | 0.16 | 0.15 | 92 | 1012.1 |
| 20260509144038 | 44 | 293 | 0.0 | 0.0 | 0.06 | 0.16 | 0.15 | 92 | 1012.0 |
| 20260509143934 | 44 | 293 | 0.0 | 0.0 | 0.06 | 0.16 | 0.13 | 92 | 1012.0 |
| 20260509143827 | 44 | 293 | 0.0 | 0.0 | 0.00 | 0.16 | 0.13 | 92 | 1011.9 |
| 20260509143501 | 44 | 293 | 0.0 | 0.0 | 0.00 | 0.16 | 0.13 | 92 | 1012.0 |
| 20260509143357 | 44 | 293 | 0.0 | 0.0 | 0.00 | 0.16 | 0.13 | 92 | 1012.0 |
| 20260509143251 | 44 | 293 | 0.0 | 0.0 | 0.00 | 0.16 | 0.13 | 92 | 1012.0 |
| 20260509143146 | 44 | 293 | 0.0 | 0.0 | 0.00 | 0.15 | 0.13 | 92 | 1012.0 |
| 20260509143042 | 44 | 293 | 0.0 | 0.0 | 0.00 | 0.15 | 0.13 | 92 | 1012.0 |
| 20260509142718 | 44 | 293 | 0.0 | 0.0 | 0.00 | 0.15 | 0.13 | 92 | 1012.0 |
| 20260509142616 | 44 | 293 | 0.0 | 0.0 | 0.00 | 0.15 | 0.13 | 92 | 1012.0 |
| 20260509142249 | 44 | 293 | 0.0 | 0.0 | 0.04 | 0.15 | 0.13 | 92 | 1012.0 |
| 20260509142141 | 44 | 293 | 0.0 | 0.0 | 0.04 | 0.15 | 0.13 | 92 | 1012.0 |
| 20260509142034 | 44 | 293 | 0.0 | 0.0 | 0.04 | 0.15 | 0.13 | 92 | 1012.0 |
| 20260509141928 | 44 | 293 | 0.0 | 0.0 | 0.04 | 0.15 | 0.13 | 92 | 1012.0 |
| 20260509141825 | 44 | 293 | 0.0 | 0.0 | 0.04 | 0.15 | 0.13 | 92 | 1012.0 |
| 20260509141722 | 44 | 293 | 0.0 | 0.0 | 0.04 | 0.15 | 0.13 | 92 | 1012.0 |
| 20260509141616 | 44 | 293 | 0.0 | 0.0 | 0.04 | 0.15 | 0.13 | 92 | 1012.0 |
| 20260509141513 | 44 | 293 | 0.0 | 0.0 | 0.04 | 0.15 | 0.13 | 92 | 1012.0 |
| 20260509141149 | 44 | 293 | 0.0 | 0.0 | 0.04 | 0.15 | 0.13 | 92 | 1012.0 |
| 20260509140827 | 44 | 293 | 0.0 | 0.0 | 0.04 | 0.14 | 0.12 | 92 | 1012.0 |
| 20260509140725 | 44 | 293 | 0.0 | 0.0 | 0.05 | 0.14 | 0.12 | 92 | 1012.0 |
| 20260509140401 | 44 | 293 | 0.0 | 0.0 | 0.06 | 0.14 | 0.12 | 91 | 1012.0 |
| 20260509140032 | 43 | 293 | 0.0 | 0.0 | 0.00 | 0.02 | 0.00 | 90 | 1012.0 |
| 20260509135925 | 43 | 293 | 0.0 | 0.0 | 0.00 | 0.02 | 0.00 | 90 | 1012.0 |
| 20260509135820 | 43 | 293 | 0.0 | 0.0 | 0.00 | 0.02 | 0.00 | 90 | 1012.0 |
| 20260509135713 | 43 | 293 | 0.0 | 0.0 | 0.00 | 0.02 | 0.00 | 90 | 1012.0 |
| 20260509135607 | 43 | 293 | 0.0 | 0.0 | 0.00 | 0.02 | 0.00 | 90 | 1012.0 |
| 20260509135501 | 43 | 293 | 0.0 | 0.0 | 0.00 | 0.02 | 0.00 | 90 | 1012.0 |
| 20260509135355 | 43 | 293 | 0.0 | 0.0 | 0.00 | 0.02 | 0.00 | 90 | 1012.1 |
| 20260509135251 | 43 | 293 | 0.0 | 0.0 | 0.00 | 0.02 | 0.00 | 90 | 1012.1 |
| 20260509135146 | 43 | 293 | 0.0 | 0.0 | 0.00 | 0.02 | 0.00 | 90 | 1012.1 |
| 20260509134820 | 43 | 293 | 0.0 | 0.0 | 0.00 | 0.02 | 0.00 | 89 | 1012.1 |
| 20260509134716 | 43 | 293 | 0.0 | 0.0 | 0.00 | 0.02 | 0.00 | 89 | 1012.1 |
| 20260509134610 | 43 | 293 | 0.0 | 0.0 | 0.00 | 0.02 | 0.00 | 89 | 1012.1 |
| 20260509134507 | 43 | 293 | 0.0 | 0.0 | 0.00 | 0.02 | 0.00 | 89 | 1012.1 |
| 20260509134401 | 43 | 293 | 0.0 | 0.0 | 0.00 | 0.02 | 0.00 | 89 | 1012.1 |
| 20260509134254 | 43 | 293 | 0.0 | 0.0 | 0.00 | 0.02 | 0.00 | 89 | 1012.2 |
| 20260509134148 | 43 | 293 | 0.0 | 0.0 | 0.00 | 0.02 | 0.00 | 88 | 1012.2 |
| 20260509134044 | 43 | 293 | 0.0 | 0.0 | 0.00 | 0.02 | 0.00 | 88 | 1012.1 |
| 20260509133937 | 43 | 293 | 0.0 | 0.0 | 0.00 | 0.02 | 0.00 | 88 | 1012.1 |
| 20260509133833 | 43 | 293 | 0.0 | 0.0 | 0.00 | 0.02 | 0.00 | 88 | 1012.1 |
| 20260509133726 | 43 | 293 | 0.0 | 0.0 | 0.00 | 0.02 | 0.00 | 88 | 1012.1 |
| 20260509133620 | 43 | 293 | 0.0 | 0.0 | 0.00 | 0.02 | 0.00 | 88 | 1012.2 |
| 20260509133036 | 43 | 293 | 0.0 | 0.0 | 0.00 | 0.02 | 0.00 | 87 | 1012.2 |
| 20260509132713 | 43 | 293 | 0.0 | 0.0 | 0.00 | 0.02 | 0.00 | 87 | 1012.1 |
| 20260509132606 | 43 | 293 | 0.0 | 0.0 | 0.00 | 0.02 | 0.00 | 87 | 1012.2 |
| 20260509132501 | 43 | 293 | 0.0 | 0.0 | 0.00 | 0.02 | 0.00 | 87 | 1012.1 |
| 20260509132358 | 43 | 293 | 0.0 | 0.0 | 0.00 | 0.02 | 0.00 | 86 | 1012.1 |
| 20260509132253 | 43 | 293 | 0.0 | 0.0 | 0.00 | 0.02 | 0.00 | 86 | 1012.1 |
| 20260509132151 | 43 | 293 | 0.0 | 0.0 | 0.00 | 0.02 | 0.00 | 86 | 1012.1 |
| 20260509132044 | 43 | 293 | 0.0 | 0.0 | 0.00 | 0.02 | 0.00 | 86 | 1012.1 |
| 20260509131937 | 43 | 293 | 0.0 | 0.0 | 0.00 | 0.02 | 0.00 | 86 | 1012.1 |
| 20260509131835 | 43 | 293 | 0.0 | 0.0 | 0.00 | 0.02 | 0.00 | 86 | 1012.1 |
| 20260509131251 | 43 | 293 | 0.0 | 0.0 | 0.00 | 0.02 | 0.00 | 85 | 1012.2 |
| 20260509131145 | 43 | 293 | 0.0 | 0.0 | 0.00 | 0.02 | 0.00 | 84 | 1012.2 |
| 20260509131039 | 43 | 293 | 0.0 | 0.0 | 0.00 | 0.02 | 0.00 | 84 | 1012.2 |
| 20260509130930 | 43 | 293 | 0.0 | 0.0 | 0.00 | 0.02 | 0.00 | 84 | 1012.1 |
| 20260509130826 | 43 | 293 | 0.0 | 0.0 | 0.00 | 0.02 | 0.00 | 84 | 1012.1 |
| 20260509130501 | 43 | 293 | 0.0 | 0.0 | 0.00 | 0.02 | 0.00 | 84 | 1012.1 |
| 20260509130356 | 43 | 293 | 0.0 | 0.0 | 0.00 | 0.02 | 0.00 | 84 | 1012.1 |
| 20260509130028 | 44 | 293 | 0.0 | 0.0 | 0.00 | 0.02 | 0.00 | 82 | 1012.1 |
| 20260509125923 | 43 | 293 | 0.0 | 0.0 | 0.00 | 0.02 | 0.00 | 82 | 1012.2 |
| 20260509125821 | 43 | 293 | 0.0 | 0.0 | 0.00 | 0.02 | 0.00 | 82 | 1012.2 |
| 20260509125715 | 43 | 293 | 0.0 | 0.0 | 0.00 | 0.02 | 0.00 | 82 | 1012.2 |
| 20260509125613 | 43 | 293 | 0.0 | 0.0 | 0.00 | 0.02 | 0.00 | 82 | 1012.1 |
| 20260509125247 | 43 | 293 | 0.0 | 0.0 | 0.00 | 0.02 | 0.00 | 83 | 1012.1 |
| 20260509125140 | 43 | 293 | 0.0 | 0.0 | 0.00 | 0.02 | 0.00 | 83 | 1012.1 |
| 20260509125035 | 43 | 293 | 0.0 | 0.0 | 0.00 | 0.02 | 0.00 | 83 | 1012.1 |
| 20260509124929 | 43 | 293 | 0.0 | 0.0 | 0.00 | 0.02 | 0.00 | 83 | 1012.1 |
| 20260509124826 | 43 | 293 | 0.0 | 0.0 | 0.00 | 0.02 | 0.00 | 83 | 1012.0 |
| 20260509124721 | 43 | 293 | 0.0 | 0.0 | 0.00 | 0.02 | 0.00 | 84 | 1012.0 |
| 20260509124614 | 43 | 293 | 0.0 | 0.0 | 0.00 | 0.02 | 0.00 | 85 | 1012.0 |
| 20260509124511 | 43 | 293 | 0.0 | 0.0 | 0.00 | 0.02 | 0.00 | 85 | 1012.1 |
| 20260509124409 | 43 | 293 | 0.0 | 0.0 | 0.00 | 0.02 | 0.00 | 85 | 1012.2 |
| 20260509124306 | 43 | 293 | 0.0 | 0.0 | 0.00 | 0.02 | 0.00 | 85 | 1012.2 |
| 20260509124159 | 43 | 293 | 0.0 | 0.0 | 0.00 | 0.02 | 0.00 | 85 | 1012.2 |
| 20260509124055 | 43 | 293 | 0.0 | 0.0 | 0.00 | 0.02 | 0.00 | 86 | 1012.2 |
| 20260509123511 | 43 | 293 | 0.0 | 0.0 | 0.00 | 0.02 | 0.00 | 86 | 1012.2 |
| 20260509123407 | 43 | 293 | 0.0 | 0.0 | 0.00 | 0.02 | 0.00 | 86 | 1012.1 |
| 20260509123301 | 43 | 293 | 0.0 | 0.0 | 0.00 | 0.02 | 0.00 | 86 | 1012.1 |
| 20260509123154 | 43 | 293 | 0.0 | 0.0 | 0.00 | 0.02 | 0.00 | 86 | 1012.2 |
| 20260509123051 | 43 | 293 | 0.0 | 0.0 | 0.00 | 0.02 | 0.00 | 86 | 1012.2 |
| 20260509122943 | 43 | 293 | 0.0 | 0.0 | 0.00 | 0.02 | 0.00 | 86 | 1012.2 |
| 20260509122840 | 43 | 293 | 0.0 | 0.0 | 0.00 | 0.02 | 0.00 | 86 | 1012.2 |
| 20260509122736 | 43 | 293 | 0.0 | 0.0 | 0.00 | 0.02 | 0.00 | 86 | 1012.2 |
| 20260509122630 | 43 | 293 | 0.0 | 0.0 | 0.00 | 0.02 | 0.00 | 86 | 1012.3 |
| 20260509122525 | 43 | 293 | 0.0 | 0.0 | 0.00 | 0.02 | 0.00 | 86 | 1012.2 |
| 20260509122423 | 43 | 293 | 0.0 | 0.0 | 0.00 | 0.02 | 0.00 | 86 | 1012.2 |
| 20260509122318 | 43 | 293 | 0.0 | 0.0 | 0.00 | 0.02 | 0.00 | 86 | 1012.2 |
| 20260509122211 | 43 | 293 | 0.0 | 0.0 | 0.00 | 0.02 | 0.00 | 86 | 1012.2 |
| 20260509122104 | 42 | 293 | 0.0 | 0.0 | 0.00 | 0.02 | 0.00 | 86 | 1012.3 |
| 20260509121955 | 42 | 293 | 0.0 | 0.0 | 0.00 | 0.02 | 0.00 | 86 | 1012.3 |
| 20260509121848 | 42 | 293 | 0.0 | 0.0 | 0.00 | 0.02 | 0.00 | 86 | 1012.2 |
| 20260509121741 | 42 | 293 | 0.0 | 0.0 | 0.00 | 0.02 | 0.00 | 86 | 1012.2 |
| 20260509121637 | 42 | 293 | 0.0 | 0.0 | 0.00 | 0.02 | 0.00 | 86 | 1012.3 |
| 20260509121533 | 42 | 293 | 0.0 | 0.0 | 0.00 | 0.02 | 0.00 | 86 | 1012.2 |
| 20260509121207 | 42 | 293 | 0.0 | 0.0 | 0.00 | 0.02 | 0.00 | 86 | 1012.2 |
| 20260509121101 | 42 | 293 | 0.0 | 0.0 | 0.00 | 0.02 | 0.00 | 86 | 1012.3 |
| 20260509120954 | 42 | 293 | 0.0 | 0.0 | 0.00 | 0.02 | 0.00 | 86 | 1012.3 |
| 20260509120853 | 42 | 293 | 0.0 | 0.0 | 0.00 | 0.02 | 0.00 | 86 | 1012.3 |
| 20260509120748 | 42 | 293 | 0.0 | 0.0 | 0.00 | 0.02 | 0.00 | 86 | 1012.3 |
| 20260509120639 | 42 | 293 | 0.0 | 0.0 | 0.00 | 0.02 | 0.00 | 86 | 1012.3 |
| 20260509120536 | 42 | 293 | 0.0 | 0.0 | 0.00 | 0.02 | 0.00 | 86 | 1012.3 |
| 20260509120429 | 42 | 293 | 0.0 | 0.0 | 0.00 | 0.02 | 0.00 | 87 | 1012.3 |
| 20260509120326 | 42 | 293 | 0.0 | 0.0 | 0.00 | 0.02 | 0.00 | 87 | 1012.3 |
| 20260509120222 | 41 | 293 | 0.0 | 0.0 | 0.00 | 0.02 | 0.00 | 87 | 1012.3 |
| 20260509120116 | 41 | 293 | 0.0 | 0.0 | 0.00 | 0.02 | 0.00 | 87 | 1012.4 |
| 20260509120014 | 41 | 293 | 0.0 | 0.0 | 0.00 | 0.02 | 0.00 | 87 | 1012.4 |
| 20260509115910 | 41 | 293 | 0.0 | 0.0 | 0.00 | 0.02 | 0.00 | 87 | 1012.5 |
| 20260509115803 | 41 | 293 | 0.0 | 0.0 | 0.00 | 0.02 | 0.00 | 87 | 1012.6 |
| 20260509115700 | 41 | 293 | 0.0 | 0.0 | 0.00 | 0.02 | 0.00 | 87 | 1012.6 |
| 20260509115553 | 41 | 293 | 0.0 | 0.0 | 0.00 | 0.02 | 0.00 | 87 | 1012.7 |
| 20260509115225 | 41 | 293 | 0.0 | 0.0 | 0.00 | 0.02 | 0.00 | 88 | 1012.6 |
| 20260509115122 | 41 | 293 | 0.0 | 0.0 | 0.00 | 0.02 | 0.00 | 88 | 1012.6 |
| 20260509115019 | 41 | 293 | 0.0 | 0.0 | 0.00 | 0.02 | 0.00 | 88 | 1012.6 |
| 20260509114912 | 41 | 293 | 0.0 | 0.0 | 0.00 | 0.02 | 0.00 | 89 | 1012.6 |
| 20260509114808 | 41 | 293 | 0.0 | 0.0 | 0.00 | 0.02 | 0.00 | 89 | 1012.6 |
| 20260509114442 | 40 | 293 | 0.0 | 0.0 | 0.00 | 0.02 | 0.00 | 90 | 1012.7 |
| 20260509114338 | 40 | 293 | 0.0 | 0.0 | 0.00 | 0.02 | 0.00 | 90 | 1012.7 |
| 20260509114232 | 40 | 293 | 0.0 | 0.0 | 0.00 | 0.02 | 0.00 | 90 | 1012.6 |
| 20260509114128 | 40 | 293 | 0.0 | 0.0 | 0.00 | 0.02 | 0.00 | 90 | 1012.6 |
| 20260509114021 | 40 | 293 | 0.0 | 0.0 | 0.00 | 0.02 | 0.00 | 90 | 1012.6 |
| 20260509113656 | 40 | 293 | 0.0 | 0.0 | 0.00 | 0.02 | 0.00 | 91 | 1012.6 |
| 20260509113329 | 40 | 293 | 0.0 | 0.0 | 0.00 | 0.02 | 0.00 | 91 | 1012.6 |
| 20260509113224 | 39 | 293 | 0.0 | 0.0 | 0.00 | 0.02 | 0.00 | 91 | 1012.7 |
| 20260509113119 | 39 | 293 | 0.0 | 0.0 | 0.00 | 0.02 | 0.00 | 91 | 1012.7 |
| 20260509113010 | 39 | 293 | 0.0 | 0.0 | 0.00 | 0.02 | 0.00 | 91 | 1012.7 |
| 20260509112903 | 39 | 293 | 0.0 | 0.0 | 0.00 | 0.02 | 0.00 | 91 | 1012.7 |
| 20260509112754 | 39 | 293 | 0.0 | 0.0 | 0.00 | 0.02 | 0.00 | 91 | 1012.8 |
| 20260509112649 | 39 | 293 | 0.0 | 0.0 | 0.00 | 0.02 | 0.00 | 92 | 1012.8 |
| 20260509112545 | 39 | 293 | 0.0 | 0.0 | 0.00 | 0.02 | 0.00 | 92 | 1012.8 |
| 20260509112440 | 39 | 293 | 0.0 | 0.0 | 0.00 | 0.02 | 0.00 | 92 | 1012.7 |
| 20260509112332 | 39 | 293 | 0.0 | 0.0 | 0.00 | 0.02 | 0.00 | 92 | 1012.7 |
| 20260509112226 | 39 | 293 | 0.0 | 0.0 | 0.00 | 0.02 | 0.00 | 92 | 1012.7 |
| 20260509112120 | 39 | 293 | 0.0 | 0.0 | 0.00 | 0.02 | 0.00 | 92 | 1012.6 |
| 20260509112015 | 39 | 293 | 0.0 | 0.0 | 0.00 | 0.02 | 0.00 | 92 | 1012.6 |
| 20260509111909 | 39 | 293 | 0.0 | 0.0 | 0.00 | 0.02 | 0.00 | 92 | 1012.6 |
| 20260509111803 | 38 | 293 | 0.0 | 0.0 | 0.00 | 0.02 | 0.00 | 92 | 1012.5 |
| 20260509111655 | 38 | 293 | 0.0 | 0.0 | 0.00 | 0.02 | 0.00 | 92 | 1012.5 |
| 20260509111551 | 38 | 293 | 0.0 | 0.0 | 0.00 | 0.02 | 0.00 | 92 | 1012.5 |
| 20260509111445 | 38 | 293 | 0.0 | 0.0 | 0.00 | 0.02 | 0.00 | 92 | 1012.4 |
| 20260509111343 | 38 | 293 | 0.0 | 0.0 | 0.00 | 0.02 | 0.00 | 92 | 1012.4 |
| 20260509111236 | 38 | 293 | 0.0 | 0.0 | 0.00 | 0.02 | 0.00 | 92 | 1012.4 |
| 20260509111134 | 38 | 293 | 0.0 | 0.0 | 0.00 | 0.02 | 0.00 | 92 | 1012.4 |
| 20260509111029 | 38 | 293 | 0.0 | 0.0 | 0.00 | 0.02 | 0.00 | 92 | 1012.4 |
| 20260509110924 | 38 | 293 | 0.0 | 0.0 | 0.00 | 0.02 | 0.00 | 92 | 1012.4 |
| 20260509110119 | 37 | 293 | 0.0 | 0.0 | 0.00 | 0.02 | 0.00 | 92 | 1012.3 |
| 20260509110017 | 37 | 293 | 0.0 | 0.0 | 0.00 | 0.02 | 0.00 | 92 | 1012.3 |
| 20260509105910 | 37 | 293 | 0.0 | 0.0 | 0.00 | 0.02 | 0.00 | 92 | 1012.3 |
| 20260509105804 | 37 | 293 | 0.0 | 0.0 | 0.00 | 0.02 | 0.00 | 92 | 1012.3 |
| 20260509105700 | 37 | 293 | 0.0 | 0.0 | 0.00 | 0.02 | 0.00 | 92 | 1012.4 |
| 20260509105552 | 37 | 293 | 0.0 | 0.0 | 0.00 | 0.02 | 0.00 | 92 | 1012.4 |
| 20260509105444 | 37 | 293 | 0.0 | 0.0 | 0.00 | 0.02 | 0.00 | 92 | 1012.4 |
| 20260509105121 | 37 | 293 | 0.0 | 0.0 | 0.00 | 0.02 | 0.00 | 92 | 1012.3 |
| 20260509105017 | 37 | 293 | 0.0 | 0.0 | 0.00 | 0.02 | 0.00 | 92 | 1012.3 |
| 20260509104911 | 37 | 293 | 0.0 | 0.0 | 0.00 | 0.02 | 0.00 | 92 | 1012.4 |
| 20260509104803 | 37 | 293 | 0.0 | 0.0 | 0.00 | 0.02 | 0.00 | 92 | 1012.4 |
| 20260509104656 | 37 | 293 | 0.0 | 0.0 | 0.00 | 0.02 | 0.00 | 92 | 1012.4 |
| 20260509104334 | 37 | 293 | 0.0 | 0.0 | 0.00 | 0.02 | 0.00 | 92 | 1012.3 |
| 20260509104227 | 37 | 293 | 0.0 | 0.0 | 0.00 | 0.02 | 0.00 | 92 | 1012.3 |
| 20260509104122 | 37 | 293 | 0.0 | 0.0 | 0.00 | 0.02 | 0.00 | 92 | 1012.3 |
| 20260509104013 | 37 | 293 | 0.0 | 0.0 | 0.00 | 0.02 | 0.00 | 92 | 1012.3 |
| 20260509103907 | 37 | 293 | 0.0 | 1.0 | 0.00 | 0.02 | 0.00 | 92 | 1012.4 |
| 20260509103802 | 37 | 293 | 0.0 | 1.0 | 0.00 | 0.02 | 0.00 | 92 | 1012.4 |
| 20260509103657 | 37 | 293 | 0.0 | 1.0 | 0.00 | 0.02 | 0.00 | 92 | 1012.4 |
| 20260509103113 | 36 | 293 | 0.0 | 0.0 | 0.00 | 0.02 | 0.00 | 91 | 1012.5 |
| 20260509103009 | 36 | 293 | 0.0 | 0.0 | 0.00 | 0.02 | 0.00 | 91 | 1012.5 |
| 20260509102648 | 36 | 293 | 0.0 | 0.0 | 0.00 | 0.02 | 0.00 | 91 | 1012.7 |
| 20260509102104 | 36 | 293 | 0.0 | 0.0 | 0.00 | 0.02 | 0.00 | 91 | 1012.6 |
| 20260509102000 | 36 | 293 | 0.0 | 0.0 | 0.00 | 0.02 | 0.00 | 91 | 1012.5 |
| 20260509101853 | 36 | 293 | 0.0 | 0.0 | 0.00 | 0.02 | 0.00 | 91 | 1012.5 |
| 20260509101529 | 36 | 293 | 0.0 | 0.0 | 0.00 | 0.02 | 0.00 | 92 | 1012.5 |
| 20260509101420 | 36 | 293 | 0.0 | 0.0 | 0.00 | 0.02 | 0.00 | 92 | 1012.5 |
| 20260509101053 | 36 | 293 | 0.0 | 0.0 | 0.00 | 0.02 | 0.00 | 92 | 1012.5 |
| 20260509100947 | 36 | 293 | 0.0 | 0.0 | 0.00 | 0.02 | 0.00 | 92 | 1012.5 |
| 20260509100839 | 36 | 293 | 0.0 | 0.0 | 0.00 | 0.02 | 0.00 | 92 | 1012.5 |
| 20260509100733 | 36 | 293 | 0.0 | 0.0 | 0.00 | 0.02 | 0.00 | 92 | 1012.6 |
| 20260509100627 | 36 | 293 | 0.0 | 0.0 | 0.00 | 0.02 | 0.00 | 92 | 1012.5 |
| 20260509100525 | 36 | 293 | 0.0 | 0.0 | 0.00 | 0.02 | 0.00 | 92 | 1012.5 |
| 20260509100421 | 36 | 293 | 0.0 | 0.0 | 0.00 | 0.02 | 0.00 | 92 | 1012.5 |
| 20260509095617 | 36 | 293 | 0.0 | 0.0 | 0.00 | 0.02 | 0.00 | 92 | 1012.5 |
| 20260509095510 | 36 | 293 | 0.0 | 0.0 | 0.00 | 0.02 | 0.00 | 92 | 1012.6 |
| 20260509095408 | 36 | 293 | 0.0 | 0.0 | 0.00 | 0.02 | 0.00 | 92 | 1012.5 |
| 20260509095306 | 36 | 293 | 0.0 | 0.0 | 0.00 | 0.02 | 0.00 | 92 | 1012.5 |
| 20260509095201 | 36 | 293 | 0.0 | 0.0 | 0.00 | 0.02 | 0.00 | 92 | 1012.5 |
| 20260509094833 | 36 | 293 | 0.0 | 0.0 | 0.00 | 0.02 | 0.00 | 92 | 1012.5 |
| 20260509094728 | 35 | 293 | 0.0 | 0.0 | 0.00 | 0.02 | 0.00 | 92 | 1012.5 |
| 20260509094622 | 35 | 293 | 0.0 | 0.0 | 0.00 | 0.02 | 0.00 | 92 | 1012.4 |
| 20260509094517 | 35 | 293 | 0.0 | 0.0 | 0.00 | 0.02 | 0.00 | 92 | 1012.5 |
| 20260509094412 | 35 | 293 | 0.0 | 0.0 | 0.00 | 0.02 | 0.00 | 92 | 1012.5 |
| 20260509094308 | 35 | 293 | 0.0 | 0.0 | 0.00 | 0.02 | 0.00 | 92 | 1012.5 |
| 20260509094205 | 35 | 293 | 0.0 | 0.0 | 0.00 | 0.02 | 0.00 | 92 | 1012.6 |
| 20260509094101 | 35 | 293 | 0.0 | 0.0 | 0.00 | 0.02 | 0.00 | 92 | 1012.6 |
| 20260509093958 | 35 | 293 | 0.0 | 0.0 | 0.00 | 0.02 | 0.00 | 92 | 1012.6 |
| 20260509093853 | 35 | 293 | 0.0 | 0.0 | 0.00 | 0.02 | 0.00 | 92 | 1012.6 |
| 20260509093750 | 35 | 293 | 0.0 | 0.0 | 0.00 | 0.02 | 0.00 | 92 | 1012.6 |
| 20260509093642 | 35 | 293 | 0.0 | 0.0 | 0.00 | 0.02 | 0.00 | 92 | 1012.6 |
| 20260509093539 | 35 | 293 | 0.0 | 0.0 | 0.00 | 0.02 | 0.00 | 92 | 1012.7 |
| 20260509093431 | 35 | 293 | 0.0 | 0.0 | 0.00 | 0.02 | 0.00 | 92 | 1012.7 |
| 20260509093325 | 35 | 293 | 0.0 | 0.0 | 0.00 | 0.02 | 0.00 | 92 | 1012.7 |
| 20260509093003 | 35 | 293 | 0.0 | 0.0 | 0.00 | 0.02 | 0.00 | 92 | 1012.7 |
| 20260509092857 | 35 | 293 | 0.0 | 0.0 | 0.00 | 0.02 | 0.00 | 92 | 1012.7 |
| 20260509092529 | 35 | 293 | 0.0 | 0.0 | 0.00 | 0.02 | 0.00 | 92 | 1012.7 |
| 20260509092427 | 35 | 293 | 0.0 | 0.0 | 0.00 | 0.02 | 0.00 | 92 | 1012.6 |
| 20260509092320 | 35 | 293 | 0.0 | 0.0 | 0.00 | 0.02 | 0.00 | 92 | 1012.7 |
| 20260509092217 | 35 | 293 | 0.0 | 0.0 | 0.00 | 0.02 | 0.00 | 92 | 1012.7 |
| 20260509092110 | 34 | 293 | 0.0 | 0.0 | 0.00 | 0.02 | 0.00 | 92 | 1012.6 |
| 20260509092002 | 34 | 293 | 0.0 | 0.0 | 0.00 | 0.02 | 0.00 | 92 | 1012.6 |
| 20260509091857 | 34 | 293 | 0.0 | 0.0 | 0.00 | 0.02 | 0.00 | 92 | 1012.6 |
| 20260509091754 | 34 | 293 | 0.0 | 0.0 | 0.00 | 0.02 | 0.00 | 92 | 1012.6 |
| 20260509091648 | 34 | 293 | 0.0 | 0.0 | 0.00 | 0.02 | 0.00 | 92 | 1012.6 |
| 20260509091543 | 34 | 293 | 0.0 | 0.0 | 0.00 | 0.02 | 0.00 | 92 | 1012.6 |
| 20260509091218 | 34 | 293 | 0.0 | 0.0 | 0.00 | 0.02 | 0.00 | 92 | 1012.5 |
| 20260509091111 | 34 | 293 | 0.0 | 0.0 | 0.00 | 0.02 | 0.00 | 92 | 1012.5 |
| 20260509091007 | 34 | 293 | 0.0 | 0.0 | 0.00 | 0.02 | 0.00 | 92 | 1012.5 |
| 20260509090903 | 34 | 293 | 0.0 | 0.0 | 0.00 | 0.02 | 0.00 | 92 | 1012.5 |
| 20260509090800 | 34 | 293 | 0.0 | 0.0 | 0.00 | 0.02 | 0.00 | 92 | 1012.5 |
| 20260509090658 | 34 | 293 | 0.0 | 0.0 | 0.00 | 0.02 | 0.00 | 92 | 1012.6 |
| 20260509090554 | 34 | 293 | 0.0 | 0.0 | 0.00 | 0.02 | 0.00 | 92 | 1012.6 |
| 20260509090233 | 34 | 293 | 0.0 | 0.0 | 0.00 | 0.02 | 0.00 | 92 | 1012.6 |
| 20260509090127 | 34 | 293 | 0.0 | 0.0 | 0.00 | 0.02 | 0.00 | 92 | 1012.5 |
| 20260509090024 | 34 | 293 | 0.0 | 0.0 | 0.00 | 0.02 | 0.00 | 92 | 1012.5 |
| 20260509085657 | 34 | 293 | 0.0 | 0.0 | 0.00 | 0.02 | 0.00 | 92 | 1012.6 |
| 20260509085554 | 34 | 293 | 0.0 | 0.0 | 0.00 | 0.02 | 0.00 | 92 | 1012.5 |
| 20260509085446 | 34 | 293 | 0.0 | 0.0 | 0.00 | 0.02 | 0.00 | 92 | 1012.5 |